Today
| Time | Wind Dr | Wind Spd mph |
Wind Gust mph |
Hum In % |
Humid % |
TempI F |
Temp F |
Raw Bar in |
Tot Rain in |
UV | Solar W/sqm |
DailyRain in |
HourRain in |
24HrRain in |
RainRate in |
|---|---|---|---|---|---|---|---|---|---|---|---|---|---|---|---|
| 09/04/26 12:01:34 AM | 30 | 0.0 | 0.0 | 50 | 66 | 72.4 | 65.4 | 29.901 | 7.41 | 0.0 | 0 | 0.00 | 0.00 | 0.00 | 0.00 |
| 09/04/26 12:02:26 AM | 30 | 0.0 | 0.0 | 50 | 66 | 72.4 | 65.4 | 29.900 | 7.41 | 0.0 | 0 | 0.00 | 0.00 | 0.00 | 0.00 |
| 09/04/26 12:03:17 AM | 30 | 0.0 | 0.0 | 50 | 66 | 72.4 | 65.4 | 29.899 | 7.41 | 0.0 | 0 | 0.00 | 0.00 | 0.00 | 0.00 |
| 09/04/26 12:04:27 AM | 30 | 0.0 | 0.0 | 50 | 66 | 72.4 | 65.4 | 29.900 | 7.41 | 0.0 | 0 | 0.00 | 0.00 | 0.00 | 0.00 |
| 09/04/26 12:05:18 AM | 30 | 0.0 | 0.0 | 50 | 66 | 72.4 | 65.4 | 29.900 | 7.41 | 0.0 | 0 | 0.00 | 0.00 | 0.00 | 0.00 |
| 09/04/26 12:06:30 AM | 32 | 0.0 | 0.0 | 50 | 66 | 72.4 | 65.3 | 29.898 | 7.41 | 0.0 | 0 | 0.00 | 0.00 | 0.00 | 0.00 |
| 09/04/26 12:07:21 AM | 32 | 0.0 | 0.0 | 50 | 66 | 72.4 | 65.3 | 29.901 | 7.41 | 0.0 | 0 | 0.00 | 0.00 | 0.00 | 0.00 |
| 09/04/26 12:08:34 AM | 28 | 0.0 | 0.0 | 50 | 66 | 72.4 | 65.3 | 29.900 | 7.41 | 0.0 | 0 | 0.00 | 0.00 | 0.00 | 0.00 |
| 09/04/26 12:09:25 AM | 32 | 0.0 | 0.0 | 50 | 66 | 72.4 | 65.3 | 29.900 | 7.41 | 0.0 | 0 | 0.00 | 0.00 | 0.00 | 0.00 |
| 09/04/26 12:10:34 AM | 32 | 0.0 | 0.0 | 50 | 66 | 72.4 | 65.2 | 29.898 | 7.41 | 0.0 | 0 | 0.00 | 0.00 | 0.00 | 0.00 |
| 09/04/26 12:11:26 AM | 29 | 0.0 | 0.0 | 50 | 67 | 72.4 | 65.2 | 29.899 | 7.41 | 0.0 | 0 | 0.00 | 0.00 | 0.00 | 0.00 |
| 09/04/26 12:12:17 AM | 28 | 0.0 | 0.0 | 50 | 67 | 72.4 | 65.2 | 29.900 | 7.41 | 0.0 | 0 | 0.00 | 0.00 | 0.00 | 0.00 |
| 09/04/26 12:13:30 AM | 31 | 0.0 | 0.0 | 50 | 67 | 72.4 | 65.2 | 29.900 | 7.41 | 0.0 | 0 | 0.00 | 0.00 | 0.00 | 0.00 |
| 09/04/26 12:14:21 AM | 30 | 0.0 | 0.0 | 50 | 67 | 72.4 | 65.2 | 29.901 | 7.41 | 0.0 | 0 | 0.00 | 0.00 | 0.00 | 0.00 |
| 09/04/26 12:15:28 AM | 30 | 0.0 | 0.0 | 50 | 67 | 72.4 | 65.2 | 29.902 | 7.41 | 0.0 | 0 | 0.00 | 0.00 | 0.00 | 0.00 |
| 09/04/26 12:16:19 AM | 30 | 0.0 | 0.0 | 50 | 67 | 72.4 | 65.1 | 29.901 | 7.41 | 0.0 | 0 | 0.00 | 0.00 | 0.00 | 0.00 |
| 09/04/26 12:17:35 AM | 29 | 0.0 | 0.0 | 50 | 68 | 72.4 | 65.1 | 29.903 | 7.41 | 0.0 | 0 | 0.00 | 0.00 | 0.00 | 0.00 |
| 09/04/26 12:18:26 AM | 31 | 0.0 | 0.0 | 50 | 68 | 72.4 | 65.1 | 29.900 | 7.41 | 0.0 | 0 | 0.00 | 0.00 | 0.00 | 0.00 |
| 09/04/26 12:19:18 AM | 32 | 0.0 | 0.0 | 50 | 68 | 72.3 | 65.1 | 29.903 | 7.41 | 0.0 | 0 | 0.00 | 0.00 | 0.00 | 0.00 |
| 09/04/26 12:20:24 AM | 29 | 0.0 | 0.0 | 50 | 68 | 72.4 | 65.0 | 29.902 | 7.41 | 0.0 | 0 | 0.00 | 0.00 | 0.00 | 0.00 |
| 09/04/26 12:21:16 AM | 32 | 0.0 | 0.0 | 50 | 68 | 72.4 | 65.0 | 29.904 | 7.41 | 0.0 | 0 | 0.00 | 0.00 | 0.00 | 0.00 |
| 09/04/26 12:22:28 AM | 32 | 0.0 | 0.0 | 50 | 68 | 72.3 | 65.0 | 29.902 | 7.41 | 0.0 | 0 | 0.00 | 0.00 | 0.00 | 0.00 |
| 09/04/26 12:23:20 AM | 29 | 0.0 | 0.0 | 50 | 68 | 72.4 | 65.0 | 29.904 | 7.41 | 0.0 | 0 | 0.00 | 0.00 | 0.00 | 0.00 |
| 09/04/26 12:24:32 AM | 32 | 0.0 | 0.0 | 50 | 68 | 72.3 | 65.0 | 29.904 | 7.41 | 0.0 | 0 | 0.00 | 0.00 | 0.00 | 0.00 |
| 09/04/26 12:25:24 AM | 34 | 0.0 | 0.0 | 50 | 68 | 72.3 | 64.9 | 29.904 | 7.41 | 0.0 | 0 | 0.00 | 0.00 | 0.00 | 0.00 |
| 09/04/26 12:26:30 AM | 29 | 0.0 | 0.0 | 50 | 68 | 72.3 | 64.9 | 29.904 | 7.41 | 0.0 | 0 | 0.00 | 0.00 | 0.00 | 0.00 |
| 09/04/26 12:27:22 AM | 29 | 0.0 | 0.0 | 50 | 68 | 72.3 | 64.9 | 29.903 | 7.41 | 0.0 | 0 | 0.00 | 0.00 | 0.00 | 0.00 |
| 09/04/26 12:28:34 AM | 32 | 0.0 | 0.0 | 50 | 68 | 72.3 | 64.8 | 29.902 | 7.41 | 0.0 | 0 | 0.00 | 0.00 | 0.00 | 0.00 |
| 09/04/26 12:29:26 AM | 32 | 0.0 | 0.0 | 50 | 68 | 72.3 | 64.8 | 29.903 | 7.41 | 0.0 | 0 | 0.00 | 0.00 | 0.00 | 0.00 |
| 09/04/26 12:30:20 AM | 29 | 0.0 | 0.0 | 50 | 68 | 72.3 | 64.8 | 29.904 | 7.41 | 0.0 | 0 | 0.00 | 0.00 | 0.00 | 0.00 |
| 09/04/26 12:31:27 AM | 28 | 0.0 | 0.0 | 50 | 68 | 72.3 | 64.8 | 29.905 | 7.41 | 0.0 | 0 | 0.00 | 0.00 | 0.00 | 0.00 |
| 09/04/26 12:32:18 AM | 28 | 0.0 | 0.0 | 50 | 68 | 72.3 | 64.8 | 29.905 | 7.41 | 0.0 | 0 | 0.00 | 0.00 | 0.00 | 0.00 |
| 09/04/26 12:33:31 AM | 34 | 0.0 | 0.0 | 50 | 69 | 72.3 | 64.8 | 29.905 | 7.41 | 0.0 | 0 | 0.00 | 0.00 | 0.00 | 0.00 |
| 09/04/26 12:34:22 AM | 28 | 0.0 | 0.0 | 50 | 69 | 72.3 | 64.7 | 29.904 | 7.41 | 0.0 | 0 | 0.00 | 0.00 | 0.00 | 0.00 |
| 09/04/26 12:35:35 AM | 31 | 0.0 | 0.0 | 50 | 69 | 72.3 | 64.7 | 29.901 | 7.41 | 0.0 | 0 | 0.00 | 0.00 | 0.00 | 0.00 |
| 09/04/26 12:36:23 AM | 31 | 0.0 | 0.0 | 50 | 69 | 72.3 | 64.7 | 29.903 | 7.41 | 0.0 | 0 | 0.00 | 0.00 | 0.00 | 0.00 |
| 09/04/26 12:37:33 AM | 32 | 0.0 | 0.0 | 50 | 69 | 72.3 | 64.6 | 29.901 | 7.41 | 0.0 | 0 | 0.00 | 0.00 | 0.00 | 0.00 |
| 09/04/26 12:38:27 AM | 24 | 0.0 | 0.0 | 50 | 69 | 72.3 | 64.6 | 29.904 | 7.41 | 0.0 | 0 | 0.00 | 0.00 | 0.00 | 0.00 |
| 09/04/26 12:39:19 AM | 32 | 0.0 | 0.0 | 50 | 70 | 72.3 | 64.6 | 29.902 | 7.41 | 0.0 | 0 | 0.00 | 0.00 | 0.00 | 0.00 |
| 09/04/26 12:40:32 AM | 31 | 0.0 | 0.0 | 50 | 70 | 72.3 | 64.6 | 29.902 | 7.41 | 0.0 | 0 | 0.00 | 0.00 | 0.00 | 0.00 |
| 09/04/26 12:41:23 AM | 32 | 0.0 | 0.0 | 50 | 70 | 72.3 | 64.5 | 29.902 | 7.41 | 0.0 | 0 | 0.00 | 0.00 | 0.00 | 0.00 |
| 09/04/26 12:42:30 AM | 28 | 0.0 | 0.0 | 50 | 70 | 72.3 | 64.5 | 29.904 | 7.41 | 0.0 | 0 | 0.00 | 0.00 | 0.00 | 0.00 |
| 09/04/26 12:43:21 AM | 29 | 0.0 | 0.0 | 50 | 70 | 72.3 | 64.5 | 29.903 | 7.41 | 0.0 | 0 | 0.00 | 0.00 | 0.00 | 0.00 |
| 09/04/26 12:44:34 AM | 31 | 0.0 | 0.0 | 50 | 70 | 72.3 | 64.5 | 29.904 | 7.41 | 0.0 | 0 | 0.00 | 0.00 | 0.00 | 0.00 |
| 09/04/26 12:45:28 AM | 29 | 0.0 | 0.0 | 50 | 70 | 72.2 | 64.5 | 29.905 | 7.41 | 0.0 | 0 | 0.00 | 0.00 | 0.00 | 0.00 |
| 09/04/26 12:46:20 AM | 28 | 0.0 | 0.0 | 50 | 70 | 72.3 | 64.4 | 29.907 | 7.41 | 0.0 | 0 | 0.00 | 0.00 | 0.00 | 0.00 |
| 09/04/26 12:47:26 AM | 30 | 0.0 | 0.0 | 50 | 70 | 72.2 | 64.4 | 29.906 | 7.41 | 0.0 | 0 | 0.00 | 0.00 | 0.00 | 0.00 |
| 09/04/26 12:48:18 AM | 31 | 0.0 | 0.0 | 50 | 69 | 72.3 | 64.4 | 29.907 | 7.41 | 0.0 | 0 | 0.00 | 0.00 | 0.00 | 0.00 |
| 09/04/26 12:49:30 AM | 31 | 0.0 | 0.0 | 50 | 69 | 72.2 | 64.3 | 29.906 | 7.41 | 0.0 | 0 | 0.00 | 0.00 | 0.00 | 0.00 |
| 09/04/26 12:50:22 AM | 32 | 0.0 | 0.0 | 50 | 69 | 72.2 | 64.3 | 29.907 | 7.41 | 0.0 | 0 | 0.00 | 0.00 | 0.00 | 0.00 |
| 09/04/26 12:51:34 AM | 31 | 0.0 | 0.0 | 50 | 69 | 72.2 | 64.3 | 29.907 | 7.41 | 0.0 | 0 | 0.00 | 0.00 | 0.00 | 0.00 |
| 09/04/26 12:52:23 AM | 32 | 0.0 | 0.0 | 50 | 69 | 72.2 | 64.3 | 29.907 | 7.41 | 0.0 | 0 | 0.00 | 0.00 | 0.00 | 0.00 |
| 09/04/26 12:53:32 AM | 32 | 0.0 | 0.0 | 50 | 69 | 72.2 | 64.3 | 29.906 | 7.41 | 0.0 | 0 | 0.00 | 0.00 | 0.00 | 0.00 |
| 09/04/26 12:54:27 AM | 29 | 0.0 | 0.0 | 50 | 69 | 72.2 | 64.3 | 29.906 | 7.41 | 0.0 | 0 | 0.00 | 0.00 | 0.00 | 0.00 |
| 09/04/26 12:55:18 AM | 28 | 0.0 | 0.0 | 50 | 69 | 72.2 | 64.2 | 29.904 | 7.41 | 0.0 | 0 | 0.00 | 0.00 | 0.00 | 0.00 |
| 09/04/26 12:56:31 AM | 30 | 0.0 | 0.0 | 50 | 69 | 72.2 | 64.2 | 29.905 | 7.41 | 0.0 | 0 | 0.00 | 0.00 | 0.00 | 0.00 |
| 09/04/26 12:57:25 AM | 34 | 0.0 | 0.0 | 50 | 69 | 72.2 | 64.2 | 29.906 | 7.41 | 0.0 | 0 | 0.00 | 0.00 | 0.00 | 0.00 |
| 09/04/26 12:58:32 AM | 25 | 0.0 | 0.0 | 50 | 69 | 72.2 | 64.1 | 29.906 | 7.41 | 0.0 | 0 | 0.00 | 0.00 | 0.00 | 0.00 |
| 09/04/26 12:59:23 AM | 31 | 0.0 | 0.0 | 50 | 69 | 72.2 | 64.1 | 29.904 | 7.41 | 0.0 | 0 | 0.00 | 0.00 | 0.00 | 0.00 |
| 09/04/26 1:00:39 AM | 32 | 0.0 | 0.0 | 50 | 70 | 72.2 | 64.1 | 29.903 | 7.41 | 0.0 | 0 | 0.00 | 0.00 | 0.00 | 0.00 |
| 09/04/26 1:01:27 AM | 32 | 0.0 | 0.0 | 50 | 70 | 72.2 | 64.1 | 29.903 | 7.41 | 0.0 | 0 | 0.00 | 0.00 | 0.00 | 0.00 |
| 09/04/26 1:02:22 AM | 29 | 0.0 | 0.0 | 50 | 70 | 72.2 | 64.1 | 29.905 | 7.41 | 0.0 | 0 | 0.00 | 0.00 | 0.00 | 0.00 |
| 09/04/26 1:03:28 AM | 31 | 0.0 | 0.0 | 50 | 70 | 72.2 | 64.1 | 29.904 | 7.41 | 0.0 | 0 | 0.00 | 0.00 | 0.00 | 0.00 |
| 09/04/26 1:04:20 AM | 28 | 0.0 | 0.0 | 50 | 70 | 72.2 | 64.1 | 29.904 | 7.41 | 0.0 | 0 | 0.00 | 0.00 | 0.00 | 0.00 |
| 09/04/26 1:05:29 AM | 32 | 0.0 | 0.0 | 50 | 70 | 72.2 | 64.0 | 29.904 | 7.41 | 0.0 | 0 | 0.00 | 0.00 | 0.00 | 0.00 |
| 09/04/26 1:06:24 AM | 28 | 0.0 | 0.0 | 50 | 71 | 72.1 | 64.0 | 29.903 | 7.41 | 0.0 | 0 | 0.00 | 0.00 | 0.00 | 0.00 |
| 09/04/26 1:07:36 AM | 26 | 0.0 | 0.0 | 50 | 71 | 72.2 | 64.0 | 29.903 | 7.41 | 0.0 | 0 | 0.00 | 0.00 | 0.00 | 0.00 |
| 09/04/26 1:08:25 AM | 34 | 0.0 | 0.0 | 50 | 71 | 72.2 | 64.0 | 29.904 | 7.41 | 0.0 | 0 | 0.00 | 0.00 | 0.00 | 0.00 |
| 09/04/26 1:09:37 AM | 28 | 0.0 | 0.0 | 50 | 71 | 72.1 | 64.0 | 29.902 | 7.41 | 0.0 | 0 | 0.00 | 0.00 | 0.00 | 0.00 |
| 09/04/26 1:10:26 AM | 30 | 0.0 | 0.0 | 50 | 71 | 72.1 | 63.9 | 29.901 | 7.41 | 0.0 | 0 | 0.00 | 0.00 | 0.00 | 0.00 |
| 09/04/26 1:11:20 AM | 28 | 0.0 | 0.0 | 50 | 71 | 72.2 | 63.9 | 29.901 | 7.41 | 0.0 | 0 | 0.00 | 0.00 | 0.00 | 0.00 |
| 09/04/26 1:12:30 AM | 32 | 0.0 | 0.0 | 50 | 71 | 72.1 | 63.9 | 29.901 | 7.41 | 0.0 | 0 | 0.00 | 0.00 | 0.00 | 0.00 |
| 09/04/26 1:13:24 AM | 32 | 0.0 | 0.0 | 50 | 71 | 72.1 | 63.8 | 29.902 | 7.41 | 0.0 | 0 | 0.00 | 0.00 | 0.00 | 0.00 |
| 09/04/26 1:14:34 AM | 34 | 0.0 | 0.0 | 50 | 71 | 72.1 | 63.8 | 29.902 | 7.41 | 0.0 | 0 | 0.00 | 0.00 | 0.00 | 0.00 |
| 09/04/26 1:15:25 AM | 31 | 0.0 | 0.0 | 50 | 71 | 72.1 | 63.8 | 29.901 | 7.41 | 0.0 | 0 | 0.00 | 0.00 | 0.00 | 0.00 |
| 09/04/26 1:16:17 AM | 28 | 0.0 | 0.0 | 50 | 71 | 72.1 | 63.8 | 29.902 | 7.41 | 0.0 | 0 | 0.00 | 0.00 | 0.00 | 0.00 |
| 09/04/26 1:17:29 AM | 28 | 0.0 | 0.0 | 50 | 71 | 72.1 | 63.8 | 29.904 | 7.41 | 0.0 | 0 | 0.00 | 0.00 | 0.00 | 0.00 |
| 09/04/26 1:18:21 AM | 28 | 0.0 | 0.0 | 50 | 71 | 72.1 | 63.7 | 29.903 | 7.41 | 0.0 | 0 | 0.00 | 0.00 | 0.00 | 0.00 |
| 09/04/26 1:19:31 AM | 32 | 0.0 | 0.0 | 50 | 71 | 72.1 | 63.7 | 29.904 | 7.41 | 0.0 | 0 | 0.00 | 0.00 | 0.00 | 0.00 |
| 09/04/26 1:20:22 AM | 32 | 0.0 | 0.0 | 50 | 71 | 72.1 | 63.7 | 29.902 | 7.41 | 0.0 | 0 | 0.00 | 0.00 | 0.00 | 0.00 |
| 09/04/26 1:21:38 AM | 30 | 0.0 | 0.0 | 50 | 71 | 72.1 | 63.7 | 29.903 | 7.41 | 0.0 | 0 | 0.00 | 0.00 | 0.00 | 0.00 |
| 09/04/26 1:22:26 AM | 25 | 0.0 | 0.0 | 50 | 71 | 72.1 | 63.6 | 29.902 | 7.41 | 0.0 | 0 | 0.00 | 0.00 | 0.00 | 0.00 |
| 09/04/26 1:23:21 AM | 32 | 0.0 | 0.0 | 50 | 71 | 72.1 | 63.6 | 29.902 | 7.41 | 0.0 | 0 | 0.00 | 0.00 | 0.00 | 0.00 |
| 09/04/26 1:24:27 AM | 29 | 0.0 | 0.0 | 50 | 71 | 72.1 | 63.6 | 29.901 | 7.41 | 0.0 | 0 | 0.00 | 0.00 | 0.00 | 0.00 |
| 09/04/26 1:25:19 AM | 32 | 0.0 | 0.0 | 50 | 71 | 72.1 | 63.6 | 29.902 | 7.41 | 0.0 | 0 | 0.00 | 0.00 | 0.00 | 0.00 |
| 09/04/26 1:26:31 AM | 34 | 0.0 | 0.0 | 50 | 71 | 72.1 | 63.6 | 29.902 | 7.41 | 0.0 | 0 | 0.00 | 0.00 | 0.00 | 0.00 |
| 09/04/26 1:27:23 AM | 30 | 0.0 | 0.0 | 50 | 71 | 72.1 | 63.6 | 29.903 | 7.41 | 0.0 | 0 | 0.00 | 0.00 | 0.00 | 0.00 |
| 09/04/26 1:28:35 AM | 31 | 0.0 | 0.0 | 50 | 71 | 72.0 | 63.6 | 29.903 | 7.41 | 0.0 | 0 | 0.00 | 0.00 | 0.00 | 0.00 |
| 09/04/26 1:33:31 AM | 30 | 0.0 | 0.0 | 50 | 71 | 72.1 | 63.5 | 29.905 | 7.41 | 0.0 | 0 | 0.00 | 0.00 | 0.00 | 0.00 |
| 09/04/26 1:34:22 AM | 26 | 0.0 | 0.0 | 50 | 71 | 72.0 | 63.4 | 29.902 | 7.41 | 0.0 | 0 | 0.00 | 0.00 | 0.00 | 0.00 |
| 09/04/26 1:35:32 AM | 30 | 0.0 | 0.0 | 50 | 71 | 72.0 | 63.4 | 29.904 | 7.41 | 0.0 | 0 | 0.00 | 0.00 | 0.00 | 0.00 |
| 09/04/26 1:36:24 AM | 32 | 0.0 | 0.0 | 50 | 71 | 72.0 | 63.4 | 29.903 | 7.41 | 0.0 | 0 | 0.00 | 0.00 | 0.00 | 0.00 |
| 09/04/26 1:37:33 AM | 28 | 0.0 | 0.0 | 50 | 72 | 72.0 | 63.4 | 29.906 | 7.41 | 0.0 | 0 | 0.00 | 0.00 | 0.00 | 0.00 |
| 09/04/26 1:38:28 AM | 34 | 0.0 | 0.0 | 50 | 72 | 72.0 | 63.4 | 29.906 | 7.41 | 0.0 | 0 | 0.00 | 0.00 | 0.00 | 0.00 |
| 09/04/26 1:39:16 AM | 31 | 0.0 | 0.0 | 50 | 72 | 72.0 | 63.3 | 29.903 | 7.41 | 0.0 | 0 | 0.00 | 0.00 | 0.00 | 0.00 |
| 09/04/26 1:40:26 AM | 34 | 0.0 | 0.0 | 50 | 72 | 72.0 | 63.3 | 29.904 | 7.41 | 0.0 | 0 | 0.00 | 0.00 | 0.00 | 0.00 |
| 09/04/26 1:41:17 AM | 34 | 0.0 | 0.0 | 50 | 72 | 72.0 | 63.3 | 29.904 | 7.41 | 0.0 | 0 | 0.00 | 0.00 | 0.00 | 0.00 |
| 09/04/26 1:42:30 AM | 32 | 0.0 | 0.0 | 50 | 72 | 72.0 | 63.3 | 29.902 | 7.41 | 0.0 | 0 | 0.00 | 0.00 | 0.00 | 0.00 |
| 09/04/26 1:43:21 AM | 32 | 0.0 | 0.0 | 50 | 72 | 72.0 | 63.2 | 29.901 | 7.41 | 0.0 | 0 | 0.00 | 0.00 | 0.00 | 0.00 |
| 09/04/26 1:44:34 AM | 30 | 0.0 | 0.0 | 50 | 72 | 72.0 | 63.2 | 29.898 | 7.41 | 0.0 | 0 | 0.00 | 0.00 | 0.00 | 0.00 |
| 09/04/26 1:45:50 AM | 28 | 0.0 | 0.0 | 50 | 72 | 72.0 | 63.1 | 29.902 | 7.41 | 0.0 | 0 | 0.00 | 0.00 | 0.00 | 0.00 |
| 09/04/26 1:46:35 AM | 31 | 0.0 | 0.0 | 51 | 72 | 72.0 | 63.1 | 29.900 | 7.41 | 0.0 | 0 | 0.00 | 0.00 | 0.00 | 0.00 |
| 09/04/26 1:47:27 AM | 31 | 0.0 | 0.0 | 51 | 72 | 72.0 | 63.1 | 29.898 | 7.41 | 0.0 | 0 | 0.00 | 0.00 | 0.00 | 0.00 |
| 09/04/26 1:48:21 AM | 32 | 0.0 | 0.0 | 51 | 72 | 72.0 | 63.1 | 29.899 | 7.41 | 0.0 | 0 | 0.00 | 0.00 | 0.00 | 0.00 |
| 09/04/26 1:49:34 AM | 30 | 0.0 | 0.0 | 51 | 72 | 72.0 | 63.1 | 29.901 | 7.41 | 0.0 | 0 | 0.00 | 0.00 | 0.00 | 0.00 |
| 09/04/26 1:50:22 AM | 32 | 0.0 | 0.0 | 51 | 72 | 72.0 | 63.1 | 29.899 | 7.41 | 0.0 | 0 | 0.00 | 0.00 | 0.00 | 0.00 |
| 09/04/26 1:51:29 AM | 31 | 0.0 | 0.0 | 51 | 73 | 71.9 | 63.0 | 29.900 | 7.41 | 0.0 | 0 | 0.00 | 0.00 | 0.00 | 0.00 |
| 09/04/26 1:52:23 AM | 29 | 0.0 | 0.0 | 51 | 73 | 71.9 | 63.0 | 29.900 | 7.41 | 0.0 | 0 | 0.00 | 0.00 | 0.00 | 0.00 |
| 09/04/26 1:53:33 AM | 29 | 0.0 | 0.0 | 51 | 73 | 72.0 | 63.0 | 29.899 | 7.41 | 0.0 | 0 | 0.00 | 0.00 | 0.00 | 0.00 |
| 09/04/26 1:54:27 AM | 32 | 0.0 | 0.0 | 51 | 73 | 71.9 | 63.0 | 29.897 | 7.41 | 0.0 | 0 | 0.00 | 0.00 | 0.00 | 0.00 |
| 09/04/26 1:55:19 AM | 30 | 0.0 | 0.0 | 51 | 73 | 71.9 | 63.0 | 29.899 | 7.41 | 0.0 | 0 | 0.00 | 0.00 | 0.00 | 0.00 |
| 09/04/26 1:56:32 AM | 31 | 0.0 | 0.0 | 51 | 73 | 71.9 | 63.0 | 29.898 | 7.41 | 0.0 | 0 | 0.00 | 0.00 | 0.00 | 0.00 |
| 09/04/26 1:57:17 AM | 32 | 0.0 | 0.0 | 51 | 73 | 71.9 | 62.9 | 29.898 | 7.41 | 0.0 | 0 | 0.00 | 0.00 | 0.00 | 0.00 |
| 09/04/26 1:58:30 AM | 31 | 0.0 | 0.0 | 51 | 73 | 71.9 | 62.9 | 29.899 | 7.41 | 0.0 | 0 | 0.00 | 0.00 | 0.00 | 0.00 |
| 09/04/26 1:59:21 AM | 28 | 0.0 | 0.0 | 51 | 73 | 71.9 | 62.9 | 29.895 | 7.41 | 0.0 | 0 | 0.00 | 0.00 | 0.00 | 0.00 |
| 09/04/26 2:00:37 AM | 32 | 0.0 | 0.0 | 51 | 73 | 71.9 | 62.9 | 29.896 | 7.41 | 0.0 | 0 | 0.00 | 0.00 | 0.00 | 0.00 |
| 09/04/26 2:01:25 AM | 30 | 0.0 | 0.0 | 51 | 73 | 71.9 | 62.9 | 29.896 | 7.41 | 0.0 | 0 | 0.00 | 0.00 | 0.00 | 0.00 |
| 09/04/26 2:02:35 AM | 26 | 0.0 | 0.0 | 51 | 73 | 71.9 | 62.9 | 29.897 | 7.41 | 0.0 | 0 | 0.00 | 0.00 | 0.00 | 0.00 |
| 09/04/26 2:03:26 AM | 34 | 0.0 | 0.0 | 51 | 73 | 71.9 | 62.9 | 29.897 | 7.41 | 0.0 | 0 | 0.00 | 0.00 | 0.00 | 0.00 |
| 09/04/26 2:04:18 AM | 32 | 0.0 | 0.0 | 51 | 73 | 71.9 | 62.9 | 29.898 | 7.41 | 0.0 | 0 | 0.00 | 0.00 | 0.00 | 0.00 |
| 09/04/26 2:05:30 AM | 26 | 0.0 | 0.0 | 51 | 73 | 71.9 | 62.9 | 29.899 | 7.41 | 0.0 | 0 | 0.00 | 0.00 | 0.00 | 0.00 |
| 09/04/26 2:06:22 AM | 32 | 0.0 | 0.0 | 51 | 73 | 71.9 | 62.9 | 29.898 | 7.41 | 0.0 | 0 | 0.00 | 0.00 | 0.00 | 0.00 |
| 09/04/26 2:07:29 AM | 32 | 0.0 | 0.0 | 51 | 73 | 71.9 | 62.9 | 29.899 | 7.41 | 0.0 | 0 | 0.00 | 0.00 | 0.00 | 0.00 |
| 09/04/26 2:08:23 AM | 31 | 0.0 | 0.0 | 51 | 73 | 71.9 | 62.9 | 29.899 | 7.41 | 0.0 | 0 | 0.00 | 0.00 | 0.00 | 0.00 |
| 09/04/26 2:09:33 AM | 34 | 0.0 | 0.0 | 51 | 73 | 71.9 | 62.8 | 29.900 | 7.41 | 0.0 | 0 | 0.00 | 0.00 | 0.00 | 0.00 |
| 09/04/26 2:10:27 AM | 28 | 0.0 | 0.0 | 51 | 73 | 71.9 | 62.8 | 29.899 | 7.41 | 0.0 | 0 | 0.00 | 0.00 | 0.00 | 0.00 |
| 09/04/26 2:11:19 AM | 28 | 0.0 | 0.0 | 51 | 73 | 71.8 | 62.8 | 29.899 | 7.41 | 0.0 | 0 | 0.00 | 0.00 | 0.00 | 0.00 |
| 09/04/26 2:12:31 AM | 26 | 0.0 | 0.0 | 51 | 73 | 71.9 | 62.8 | 29.900 | 7.41 | 0.0 | 0 | 0.00 | 0.00 | 0.00 | 0.00 |
| 09/04/26 2:13:20 AM | 29 | 0.0 | 0.0 | 51 | 74 | 71.9 | 62.8 | 29.898 | 7.41 | 0.0 | 0 | 0.00 | 0.00 | 0.00 | 0.00 |
| 09/04/26 2:14:30 AM | 32 | 0.0 | 0.0 | 51 | 74 | 71.9 | 62.8 | 29.900 | 7.41 | 0.0 | 0 | 0.00 | 0.00 | 0.00 | 0.00 |
| 09/04/26 2:15:24 AM | 34 | 0.0 | 0.0 | 51 | 74 | 71.8 | 62.8 | 29.897 | 7.41 | 0.0 | 0 | 0.00 | 0.00 | 0.00 | 0.00 |
| 09/04/26 2:16:34 AM | 29 | 0.0 | 0.0 | 51 | 74 | 71.8 | 62.8 | 29.899 | 7.41 | 0.0 | 0 | 0.00 | 0.00 | 0.00 | 0.00 |
| 09/04/26 2:17:28 AM | 26 | 0.0 | 0.0 | 51 | 74 | 71.8 | 62.7 | 29.900 | 7.41 | 0.0 | 0 | 0.00 | 0.00 | 0.00 | 0.00 |
| 09/04/26 2:18:35 AM | 31 | 0.0 | 0.0 | 51 | 74 | 71.9 | 62.7 | 29.898 | 7.41 | 0.0 | 0 | 0.00 | 0.00 | 0.00 | 0.00 |
| 09/04/26 2:19:26 AM | 29 | 0.0 | 0.0 | 51 | 74 | 71.8 | 62.7 | 29.899 | 7.41 | 0.0 | 0 | 0.00 | 0.00 | 0.00 | 0.00 |
| 09/04/26 2:20:18 AM | 28 | 0.0 | 0.0 | 51 | 74 | 71.9 | 62.7 | 29.898 | 7.41 | 0.0 | 0 | 0.00 | 0.00 | 0.00 | 0.00 |
| 09/04/26 2:21:30 AM | 34 | 0.0 | 0.0 | 51 | 74 | 71.8 | 62.7 | 29.900 | 7.41 | 0.0 | 0 | 0.00 | 0.00 | 0.00 | 0.00 |
| 09/04/26 2:22:22 AM | 31 | 0.0 | 0.0 | 51 | 74 | 71.9 | 62.7 | 29.899 | 7.41 | 0.0 | 0 | 0.00 | 0.00 | 0.00 | 0.00 |
| 09/04/26 2:23:28 AM | 34 | 0.0 | 0.0 | 51 | 74 | 71.8 | 62.7 | 29.900 | 7.41 | 0.0 | 0 | 0.00 | 0.00 | 0.00 | 0.00 |
| 09/04/26 2:24:23 AM | 31 | 0.0 | 0.0 | 51 | 74 | 71.9 | 62.7 | 29.899 | 7.41 | 0.0 | 0 | 0.00 | 0.00 | 0.00 | 0.00 |
| 09/04/26 2:25:33 AM | 30 | 0.0 | 0.0 | 51 | 74 | 71.8 | 62.7 | 29.899 | 7.41 | 0.0 | 0 | 0.00 | 0.00 | 0.00 | 0.00 |
| 09/04/26 2:26:24 AM | 32 | 0.0 | 0.0 | 51 | 74 | 71.8 | 62.7 | 29.899 | 7.41 | 0.0 | 0 | 0.00 | 0.00 | 0.00 | 0.00 |
| 09/04/26 2:27:16 AM | 32 | 0.0 | 0.0 | 51 | 74 | 71.8 | 62.7 | 29.898 | 7.41 | 0.0 | 0 | 0.00 | 0.00 | 0.00 | 0.00 |
| 09/04/26 2:28:28 AM | 31 | 0.0 | 0.0 | 51 | 74 | 71.8 | 62.7 | 29.900 | 7.41 | 0.0 | 0 | 0.00 | 0.00 | 0.00 | 0.00 |
| 09/04/26 2:29:17 AM | 31 | 0.0 | 0.0 | 51 | 74 | 71.8 | 62.6 | 29.900 | 7.41 | 0.0 | 0 | 0.00 | 0.00 | 0.00 | 0.00 |
| 09/04/26 2:30:51 AM | 31 | 0.0 | 0.0 | 51 | 74 | 71.7 | 62.6 | 29.898 | 7.41 | 0.0 | 0 | 0.00 | 0.00 | 0.00 | 0.00 |
| 09/04/26 2:31:24 AM | 32 | 0.0 | 0.0 | 51 | 74 | 71.8 | 62.6 | 29.899 | 7.41 | 0.0 | 0 | 0.00 | 0.00 | 0.00 | 0.00 |
| 09/04/26 2:32:34 AM | 30 | 0.0 | 0.0 | 51 | 74 | 71.8 | 62.6 | 29.901 | 7.41 | 0.0 | 0 | 0.00 | 0.00 | 0.00 | 0.00 |
| 09/04/26 2:33:28 AM | 32 | 0.0 | 0.0 | 51 | 74 | 71.8 | 62.5 | 29.898 | 7.41 | 0.0 | 0 | 0.00 | 0.00 | 0.00 | 0.00 |
| 09/04/26 2:34:17 AM | 28 | 0.0 | 0.0 | 51 | 74 | 71.8 | 62.5 | 29.897 | 7.41 | 0.0 | 0 | 0.00 | 0.00 | 0.00 | 0.00 |
| 09/04/26 2:35:26 AM | 35 | 0.0 | 0.0 | 51 | 74 | 71.7 | 62.5 | 29.901 | 7.41 | 0.0 | 0 | 0.00 | 0.00 | 0.00 | 0.00 |
| 09/04/26 2:36:18 AM | 28 | 0.0 | 0.0 | 51 | 74 | 71.7 | 62.5 | 29.897 | 7.41 | 0.0 | 0 | 0.00 | 0.00 | 0.00 | 0.00 |
| 09/04/26 2:37:31 AM | 31 | 0.0 | 0.0 | 51 | 74 | 71.7 | 62.5 | 29.898 | 7.41 | 0.0 | 0 | 0.00 | 0.00 | 0.00 | 0.00 |
| 09/04/26 2:38:22 AM | 31 | 0.0 | 0.0 | 51 | 74 | 71.7 | 62.4 | 29.898 | 7.41 | 0.0 | 0 | 0.00 | 0.00 | 0.00 | 0.00 |
| 09/04/26 2:39:35 AM | 31 | 0.0 | 0.0 | 51 | 74 | 71.7 | 62.4 | 29.896 | 7.41 | 0.0 | 0 | 0.00 | 0.00 | 0.00 | 0.00 |
| 09/04/26 2:40:23 AM | 32 | 0.0 | 0.0 | 51 | 74 | 71.7 | 62.3 | 29.897 | 7.41 | 0.0 | 0 | 0.00 | 0.00 | 0.00 | 0.00 |
| 09/04/26 2:41:33 AM | 28 | 0.0 | 0.0 | 51 | 75 | 71.7 | 62.3 | 29.897 | 7.41 | 0.0 | 0 | 0.00 | 0.00 | 0.00 | 0.00 |
| 09/04/26 2:42:28 AM | 31 | 0.0 | 0.0 | 51 | 75 | 71.7 | 62.3 | 29.896 | 7.41 | 0.0 | 0 | 0.00 | 0.00 | 0.00 | 0.00 |
| 09/04/26 2:43:19 AM | 32 | 0.0 | 0.0 | 51 | 75 | 71.7 | 62.3 | 29.894 | 7.41 | 0.0 | 0 | 0.00 | 0.00 | 0.00 | 0.00 |
| 09/04/26 2:44:29 AM | 31 | 0.0 | 0.0 | 51 | 75 | 71.7 | 62.2 | 29.898 | 7.41 | 0.0 | 0 | 0.00 | 0.00 | 0.00 | 0.00 |
| 09/04/26 2:45:20 AM | 28 | 0.0 | 0.0 | 51 | 75 | 71.7 | 62.2 | 29.901 | 7.41 | 0.0 | 0 | 0.00 | 0.00 | 0.00 | 0.00 |
| 09/04/26 2:46:30 AM | 31 | 0.0 | 0.0 | 51 | 75 | 71.7 | 62.2 | 29.898 | 7.41 | 0.0 | 0 | 0.00 | 0.00 | 0.00 | 0.00 |
| 09/04/26 2:47:21 AM | 30 | 0.0 | 0.0 | 51 | 75 | 71.7 | 62.2 | 29.897 | 7.41 | 0.0 | 0 | 0.00 | 0.00 | 0.00 | 0.00 |
| 09/04/26 2:48:34 AM | 31 | 0.0 | 0.0 | 51 | 75 | 71.7 | 62.2 | 29.896 | 7.41 | 0.0 | 0 | 0.00 | 0.00 | 0.00 | 0.00 |
| 09/04/26 2:49:26 AM | 32 | 0.0 | 0.0 | 51 | 75 | 71.7 | 62.2 | 29.899 | 7.41 | 0.0 | 0 | 0.00 | 0.00 | 0.00 | 0.00 |
| 09/04/26 2:50:17 AM | 31 | 0.0 | 0.0 | 51 | 76 | 71.7 | 62.2 | 29.898 | 7.41 | 0.0 | 0 | 0.00 | 0.00 | 0.00 | 0.00 |
| 09/04/26 2:51:24 AM | 32 | 0.0 | 0.0 | 51 | 76 | 71.7 | 62.1 | 29.900 | 7.41 | 0.0 | 0 | 0.00 | 0.00 | 0.00 | 0.00 |
| 09/04/26 2:52:18 AM | 32 | 0.0 | 0.0 | 51 | 76 | 71.7 | 62.2 | 29.898 | 7.41 | 0.0 | 0 | 0.00 | 0.00 | 0.00 | 0.00 |
| 09/04/26 2:53:28 AM | 28 | 0.0 | 0.0 | 51 | 76 | 71.6 | 62.2 | 29.898 | 7.41 | 0.0 | 0 | 0.00 | 0.00 | 0.00 | 0.00 |
| 09/04/26 2:54:19 AM | 31 | 0.0 | 0.0 | 51 | 76 | 71.7 | 62.1 | 29.898 | 7.41 | 0.0 | 0 | 0.00 | 0.00 | 0.00 | 0.00 |
| 09/04/26 2:55:35 AM | 27 | 0.0 | 0.0 | 51 | 76 | 71.6 | 62.1 | 29.899 | 7.41 | 0.0 | 0 | 0.00 | 0.00 | 0.00 | 0.00 |
| 09/04/26 2:56:21 AM | 28 | 0.0 | 0.0 | 51 | 76 | 71.7 | 62.1 | 29.899 | 7.41 | 0.0 | 0 | 0.00 | 0.00 | 0.00 | 0.00 |
| 09/04/26 2:57:33 AM | 28 | 0.0 | 0.0 | 51 | 76 | 71.6 | 62.1 | 29.898 | 7.41 | 0.0 | 0 | 0.00 | 0.00 | 0.00 | 0.00 |
| 09/04/26 2:58:22 AM | 32 | 0.0 | 0.0 | 51 | 76 | 71.6 | 62.1 | 29.899 | 7.41 | 0.0 | 0 | 0.00 | 0.00 | 0.00 | 0.00 |
| 09/04/26 2:59:35 AM | 30 | 0.0 | 0.0 | 51 | 76 | 71.7 | 62.0 | 29.899 | 7.41 | 0.0 | 0 | 0.00 | 0.00 | 0.00 | 0.00 |
| 09/04/26 3:00:29 AM | 28 | 0.0 | 0.0 | 51 | 76 | 71.6 | 62.1 | 29.898 | 7.41 | 0.0 | 0 | 0.00 | 0.00 | 0.00 | 0.00 |
| 09/04/26 3:01:36 AM | 32 | 0.0 | 0.0 | 51 | 76 | 71.6 | 62.0 | 29.899 | 7.41 | 0.0 | 0 | 0.00 | 0.00 | 0.00 | 0.00 |
| 09/04/26 3:02:27 AM | 28 | 0.0 | 0.0 | 51 | 76 | 71.6 | 62.0 | 29.898 | 7.41 | 0.0 | 0 | 0.00 | 0.00 | 0.00 | 0.00 |
| 09/04/26 3:03:19 AM | 31 | 0.0 | 0.0 | 51 | 76 | 71.6 | 62.0 | 29.896 | 7.41 | 0.0 | 0 | 0.00 | 0.00 | 0.00 | 0.00 |
| 09/04/26 3:04:31 AM | 34 | 0.0 | 0.0 | 51 | 76 | 71.6 | 62.0 | 29.897 | 7.41 | 0.0 | 0 | 0.00 | 0.00 | 0.00 | 0.00 |
| 09/04/26 3:05:23 AM | 27 | 0.0 | 0.0 | 51 | 76 | 71.6 | 62.0 | 29.899 | 7.41 | 0.0 | 0 | 0.00 | 0.00 | 0.00 | 0.00 |
| 09/04/26 3:06:33 AM | 34 | 0.0 | 0.0 | 51 | 76 | 71.6 | 61.9 | 29.898 | 7.41 | 0.0 | 0 | 0.00 | 0.00 | 0.00 | 0.00 |
| 09/04/26 3:07:24 AM | 32 | 0.0 | 0.0 | 51 | 76 | 71.6 | 61.9 | 29.897 | 7.41 | 0.0 | 0 | 0.00 | 0.00 | 0.00 | 0.00 |
| 09/04/26 3:08:37 AM | 31 | 0.0 | 0.0 | 51 | 76 | 71.5 | 61.8 | 29.899 | 7.41 | 0.0 | 0 | 0.00 | 0.00 | 0.00 | 0.00 |
| 09/04/26 3:09:28 AM | 32 | 0.0 | 0.0 | 51 | 76 | 71.6 | 61.8 | 29.901 | 7.41 | 0.0 | 0 | 0.00 | 0.00 | 0.00 | 0.00 |
| 09/04/26 3:10:20 AM | 35 | 0.0 | 0.0 | 52 | 76 | 71.5 | 61.8 | 29.898 | 7.41 | 0.0 | 0 | 0.00 | 0.00 | 0.00 | 0.00 |
| 09/04/26 3:11:33 AM | 31 | 0.0 | 0.0 | 52 | 76 | 71.5 | 61.8 | 29.897 | 7.41 | 0.0 | 0 | 0.00 | 0.00 | 0.00 | 0.00 |
| 09/04/26 3:12:21 AM | 31 | 0.0 | 0.0 | 52 | 76 | 71.5 | 61.8 | 29.899 | 7.41 | 0.0 | 0 | 0.00 | 0.00 | 0.00 | 0.00 |
| 09/04/26 3:13:31 AM | 31 | 0.0 | 0.0 | 52 | 76 | 71.5 | 61.8 | 29.898 | 7.41 | 0.0 | 0 | 0.00 | 0.00 | 0.00 | 0.00 |
| 09/04/26 3:14:22 AM | 31 | 0.0 | 0.0 | 52 | 76 | 71.5 | 61.8 | 29.899 | 7.41 | 0.0 | 0 | 0.00 | 0.00 | 0.00 | 0.00 |
| 09/04/26 3:16:32 AM | 31 | 0.0 | 0.0 | 52 | 76 | 71.6 | 61.8 | 29.897 | 7.41 | 0.0 | 0 | 0.00 | 0.00 | 0.00 | 0.00 |
| 09/04/26 3:17:39 AM | 31 | 0.0 | 0.0 | 52 | 76 | 71.8 | 61.8 | 29.898 | 7.41 | 0.0 | 0 | 0.00 | 0.00 | 0.00 | 0.00 |
| 09/04/26 3:18:09 AM | 31 | 0.0 | 0.0 | 52 | 76 | 71.8 | 61.7 | 29.898 | 7.41 | 0.0 | 0 | 0.00 | 0.00 | 0.00 | 0.00 |
| 09/04/26 3:18:40 AM | 32 | 0.0 | 0.0 | 52 | 77 | 71.8 | 61.7 | 29.898 | 7.41 | 0.0 | 0 | 0.00 | 0.00 | 0.00 | 0.00 |
| 09/04/26 3:19:31 AM | 32 | 0.0 | 0.0 | 52 | 77 | 71.8 | 61.6 | 29.898 | 7.41 | 0.0 | 0 | 0.00 | 0.00 | 0.00 | 0.00 |
| 09/04/26 3:20:23 AM | 31 | 0.0 | 0.0 | 52 | 77 | 71.7 | 61.6 | 29.898 | 7.41 | 0.0 | 0 | 0.00 | 0.00 | 0.00 | 0.00 |
| 09/04/26 3:21:33 AM | 32 | 0.0 | 0.0 | 52 | 77 | 71.7 | 61.6 | 29.900 | 7.41 | 0.0 | 0 | 0.00 | 0.00 | 0.00 | 0.00 |
| 09/04/26 3:22:24 AM | 28 | 0.0 | 0.0 | 52 | 77 | 71.6 | 61.5 | 29.899 | 7.41 | 0.0 | 0 | 0.00 | 0.00 | 0.00 | 0.00 |
| 09/04/26 3:23:19 AM | 30 | 0.0 | 0.0 | 52 | 77 | 71.6 | 61.5 | 29.899 | 7.41 | 0.0 | 0 | 0.00 | 0.00 | 0.00 | 0.00 |
| 09/04/26 3:24:25 AM | 28 | 0.0 | 0.0 | 52 | 77 | 71.6 | 61.5 | 29.899 | 7.41 | 0.0 | 0 | 0.00 | 0.00 | 0.00 | 0.00 |
| 09/04/26 3:25:17 AM | 32 | 0.0 | 0.0 | 52 | 77 | 71.5 | 61.4 | 29.899 | 7.41 | 0.0 | 0 | 0.00 | 0.00 | 0.00 | 0.00 |
| 09/04/26 3:26:30 AM | 28 | 0.0 | 0.0 | 52 | 77 | 71.5 | 61.4 | 29.899 | 7.41 | 0.0 | 0 | 0.00 | 0.00 | 0.00 | 0.00 |
| 09/04/26 3:27:21 AM | 31 | 0.0 | 0.0 | 52 | 77 | 71.5 | 61.4 | 29.898 | 7.41 | 0.0 | 0 | 0.00 | 0.00 | 0.00 | 0.00 |
| 09/04/26 3:28:34 AM | 32 | 0.0 | 0.0 | 52 | 77 | 71.5 | 61.3 | 29.899 | 7.41 | 0.0 | 0 | 0.00 | 0.00 | 0.00 | 0.00 |
| 09/04/26 3:29:28 AM | 32 | 0.0 | 0.0 | 52 | 77 | 71.5 | 61.3 | 29.900 | 7.41 | 0.0 | 0 | 0.00 | 0.00 | 0.00 | 0.00 |
| 09/04/26 3:30:17 AM | 32 | 0.0 | 0.0 | 52 | 77 | 71.5 | 61.3 | 29.898 | 7.41 | 0.0 | 0 | 0.00 | 0.00 | 0.00 | 0.00 |
| 09/04/26 3:31:27 AM | 30 | 0.0 | 0.0 | 52 | 77 | 71.5 | 61.3 | 29.899 | 7.41 | 0.0 | 0 | 0.00 | 0.00 | 0.00 | 0.00 |
| 09/04/26 3:32:21 AM | 30 | 0.0 | 0.0 | 52 | 77 | 71.5 | 61.3 | 29.899 | 7.41 | 0.0 | 0 | 0.00 | 0.00 | 0.00 | 0.00 |
| 09/04/26 3:33:31 AM | 32 | 0.0 | 0.0 | 52 | 77 | 71.5 | 61.3 | 29.900 | 7.41 | 0.0 | 0 | 0.00 | 0.00 | 0.00 | 0.00 |
| 09/04/26 3:34:22 AM | 28 | 0.0 | 0.0 | 52 | 77 | 71.4 | 61.2 | 29.900 | 7.41 | 0.0 | 0 | 0.00 | 0.00 | 0.00 | 0.00 |
| 09/04/26 3:35:29 AM | 30 | 0.0 | 0.0 | 52 | 77 | 71.5 | 61.2 | 29.898 | 7.41 | 0.0 | 0 | 0.00 | 0.00 | 0.00 | 0.00 |
| 09/04/26 3:36:23 AM | 28 | 0.0 | 0.0 | 52 | 77 | 71.4 | 61.2 | 29.898 | 7.41 | 0.0 | 0 | 0.00 | 0.00 | 0.00 | 0.00 |
| 09/04/26 3:37:33 AM | 35 | 0.0 | 0.0 | 52 | 77 | 71.4 | 61.2 | 29.898 | 7.41 | 0.0 | 0 | 0.00 | 0.00 | 0.00 | 0.00 |
| 09/04/26 3:38:25 AM | 34 | 0.0 | 0.0 | 52 | 77 | 71.4 | 61.2 | 29.901 | 7.41 | 0.0 | 0 | 0.00 | 0.00 | 0.00 | 0.00 |
| 09/04/26 3:39:34 AM | 31 | 0.0 | 0.0 | 52 | 77 | 71.4 | 61.1 | 29.899 | 7.41 | 0.0 | 0 | 0.00 | 0.00 | 0.00 | 0.00 |
| 09/04/26 3:40:23 AM | 32 | 0.0 | 0.0 | 52 | 77 | 71.4 | 61.1 | 29.899 | 7.41 | 0.0 | 0 | 0.00 | 0.00 | 0.00 | 0.00 |
| 09/04/26 3:41:18 AM | 31 | 0.0 | 0.0 | 52 | 77 | 71.4 | 61.1 | 29.899 | 7.41 | 0.0 | 0 | 0.00 | 0.00 | 0.00 | 0.00 |
| 09/04/26 3:42:30 AM | 32 | 0.0 | 0.0 | 52 | 77 | 71.4 | 61.1 | 29.901 | 7.41 | 0.0 | 0 | 0.00 | 0.00 | 0.00 | 0.00 |
| 09/04/26 3:43:22 AM | 32 | 0.0 | 0.0 | 52 | 77 | 71.4 | 61.1 | 29.902 | 7.41 | 0.0 | 0 | 0.00 | 0.00 | 0.00 | 0.00 |
| 09/04/26 3:44:34 AM | 31 | 0.0 | 0.0 | 52 | 77 | 71.4 | 61.1 | 29.900 | 7.41 | 0.0 | 0 | 0.00 | 0.00 | 0.00 | 0.00 |
| 09/04/26 3:45:29 AM | 32 | 0.0 | 0.0 | 52 | 77 | 71.3 | 61.0 | 29.905 | 7.41 | 0.0 | 0 | 0.00 | 0.00 | 0.00 | 0.00 |
| 09/04/26 3:46:33 AM | 30 | 0.0 | 0.0 | 52 | 77 | 71.4 | 61.0 | 29.901 | 7.41 | 0.0 | 0 | 0.00 | 0.00 | 0.00 | 0.00 |
| 09/04/26 3:47:27 AM | 28 | 0.0 | 0.0 | 52 | 77 | 71.3 | 61.0 | 29.900 | 7.41 | 0.0 | 0 | 0.00 | 0.00 | 0.00 | 0.00 |
| 09/04/26 3:48:19 AM | 28 | 0.0 | 0.0 | 52 | 77 | 71.3 | 61.0 | 29.900 | 7.41 | 0.0 | 0 | 0.00 | 0.00 | 0.00 | 0.00 |
| 09/04/26 3:49:31 AM | 30 | 0.0 | 0.0 | 52 | 77 | 71.3 | 60.9 | 29.900 | 7.41 | 0.0 | 0 | 0.00 | 0.00 | 0.00 | 0.00 |
| 09/04/26 3:50:23 AM | 34 | 0.0 | 0.0 | 52 | 77 | 71.3 | 60.9 | 29.900 | 7.41 | 0.0 | 0 | 0.00 | 0.00 | 0.00 | 0.00 |
| 09/04/26 3:51:33 AM | 31 | 0.0 | 0.0 | 52 | 77 | 71.3 | 60.9 | 29.899 | 7.41 | 0.0 | 0 | 0.00 | 0.00 | 0.00 | 0.00 |
| 09/04/26 3:52:24 AM | 34 | 0.0 | 0.0 | 52 | 77 | 71.3 | 60.9 | 29.902 | 7.41 | 0.0 | 0 | 0.00 | 0.00 | 0.00 | 0.00 |
| 09/04/26 3:53:37 AM | 31 | 0.0 | 0.0 | 52 | 78 | 71.3 | 60.9 | 29.900 | 7.41 | 0.0 | 0 | 0.00 | 0.00 | 0.00 | 0.00 |
| 09/04/26 3:54:29 AM | 30 | 0.0 | 0.0 | 52 | 78 | 71.3 | 60.8 | 29.898 | 7.41 | 0.0 | 0 | 0.00 | 0.00 | 0.00 | 0.00 |
| 09/04/26 3:55:20 AM | 31 | 0.0 | 0.0 | 52 | 78 | 71.3 | 60.8 | 29.898 | 7.41 | 0.0 | 0 | 0.00 | 0.00 | 0.00 | 0.00 |
| 09/04/26 3:56:27 AM | 31 | 0.0 | 0.0 | 52 | 78 | 71.3 | 60.8 | 29.898 | 7.41 | 0.0 | 0 | 0.00 | 0.00 | 0.00 | 0.00 |
| 09/04/26 3:57:21 AM | 32 | 0.0 | 0.0 | 52 | 78 | 71.3 | 60.8 | 29.900 | 7.41 | 0.0 | 0 | 0.00 | 0.00 | 0.00 | 0.00 |
| 09/04/26 3:58:34 AM | 30 | 0.0 | 0.0 | 52 | 78 | 71.3 | 60.8 | 29.900 | 7.41 | 0.0 | 0 | 0.00 | 0.00 | 0.00 | 0.00 |
| 09/04/26 3:59:26 AM | 28 | 0.0 | 0.0 | 52 | 78 | 71.3 | 60.8 | 29.899 | 7.41 | 0.0 | 0 | 0.00 | 0.00 | 0.00 | 0.00 |
| 09/04/26 4:00:20 AM | 34 | 0.0 | 0.0 | 52 | 78 | 71.3 | 60.8 | 29.898 | 7.41 | 0.0 | 0 | 0.00 | 0.00 | 0.00 | 0.00 |
| 09/04/26 4:01:30 AM | 35 | 0.0 | 0.0 | 52 | 78 | 71.3 | 60.8 | 29.902 | 7.41 | 0.0 | 0 | 0.00 | 0.00 | 0.00 | 0.00 |
| 09/04/26 4:02:18 AM | 28 | 0.0 | 0.0 | 52 | 78 | 71.3 | 60.8 | 29.899 | 7.41 | 0.0 | 0 | 0.00 | 0.00 | 0.00 | 0.00 |
| 09/04/26 4:03:31 AM | 31 | 0.0 | 0.0 | 52 | 78 | 71.2 | 60.8 | 29.898 | 7.41 | 0.0 | 0 | 0.00 | 0.00 | 0.00 | 0.00 |
| 09/04/26 4:04:23 AM | 31 | 0.0 | 0.0 | 52 | 78 | 71.3 | 60.7 | 29.899 | 7.41 | 0.0 | 0 | 0.00 | 0.00 | 0.00 | 0.00 |
| 09/04/26 4:05:35 AM | 31 | 0.0 | 0.0 | 52 | 79 | 71.2 | 60.7 | 29.900 | 7.41 | 0.0 | 0 | 0.00 | 0.00 | 0.00 | 0.00 |
| 09/04/26 4:06:27 AM | 32 | 0.0 | 0.0 | 52 | 79 | 71.2 | 60.7 | 29.899 | 7.41 | 0.0 | 0 | 0.00 | 0.00 | 0.00 | 0.00 |
| 09/04/26 4:07:33 AM | 31 | 0.0 | 0.0 | 52 | 79 | 71.2 | 60.7 | 29.898 | 7.41 | 0.0 | 0 | 0.00 | 0.00 | 0.00 | 0.00 |
| 09/04/26 4:08:25 AM | 28 | 0.0 | 0.0 | 52 | 79 | 71.2 | 60.7 | 29.900 | 7.41 | 0.0 | 0 | 0.00 | 0.00 | 0.00 | 0.00 |
| 09/04/26 4:09:17 AM | 32 | 0.0 | 0.0 | 52 | 79 | 71.2 | 60.7 | 29.898 | 7.41 | 0.0 | 0 | 0.00 | 0.00 | 0.00 | 0.00 |
| 09/04/26 4:10:29 AM | 30 | 0.0 | 0.0 | 52 | 79 | 71.2 | 60.7 | 29.897 | 7.41 | 0.0 | 0 | 0.00 | 0.00 | 0.00 | 0.00 |
| 09/04/26 4:11:21 AM | 28 | 0.0 | 0.0 | 52 | 79 | 71.2 | 60.7 | 29.898 | 7.41 | 0.0 | 0 | 0.00 | 0.00 | 0.00 | 0.00 |
| 09/04/26 4:12:31 AM | 32 | 0.0 | 0.0 | 52 | 79 | 71.2 | 60.7 | 29.900 | 7.41 | 0.0 | 0 | 0.00 | 0.00 | 0.00 | 0.00 |
| 09/04/26 4:13:22 AM | 30 | 0.0 | 0.0 | 52 | 79 | 71.2 | 60.7 | 29.898 | 7.41 | 0.0 | 0 | 0.00 | 0.00 | 0.00 | 0.00 |
| 09/04/26 4:14:35 AM | 29 | 0.0 | 0.0 | 52 | 79 | 71.2 | 60.7 | 29.900 | 7.41 | 0.0 | 0 | 0.00 | 0.00 | 0.00 | 0.00 |
| 09/04/26 4:15:26 AM | 32 | 0.0 | 0.0 | 52 | 79 | 71.2 | 60.7 | 29.898 | 7.41 | 0.0 | 0 | 0.00 | 0.00 | 0.00 | 0.00 |
| 09/04/26 4:16:18 AM | 31 | 0.0 | 0.0 | 52 | 79 | 71.2 | 60.7 | 29.899 | 7.41 | 0.0 | 0 | 0.00 | 0.00 | 0.00 | 0.00 |
| 09/04/26 4:17:31 AM | 32 | 0.0 | 0.0 | 52 | 80 | 71.2 | 60.7 | 29.898 | 7.41 | 0.0 | 0 | 0.00 | 0.00 | 0.00 | 0.00 |
| 09/04/26 4:18:19 AM | 32 | 0.0 | 0.0 | 52 | 80 | 71.1 | 60.7 | 29.897 | 7.41 | 0.0 | 0 | 0.00 | 0.00 | 0.00 | 0.00 |
| 09/04/26 4:19:29 AM | 26 | 0.0 | 0.0 | 52 | 80 | 71.1 | 60.7 | 29.900 | 7.41 | 0.0 | 0 | 0.00 | 0.00 | 0.00 | 0.00 |
| 09/04/26 4:20:23 AM | 32 | 0.0 | 0.0 | 52 | 80 | 71.1 | 60.7 | 29.899 | 7.41 | 0.0 | 0 | 0.00 | 0.00 | 0.00 | 0.00 |
| 09/04/26 4:21:33 AM | 32 | 0.0 | 0.0 | 52 | 80 | 71.1 | 60.7 | 29.899 | 7.41 | 0.0 | 0 | 0.00 | 0.00 | 0.00 | 0.00 |
| 09/04/26 4:22:25 AM | 30 | 0.0 | 0.0 | 52 | 80 | 71.1 | 60.7 | 29.901 | 7.41 | 0.0 | 0 | 0.00 | 0.00 | 0.00 | 0.00 |
| 09/04/26 4:23:34 AM | 31 | 0.0 | 0.0 | 52 | 80 | 71.1 | 60.7 | 29.899 | 7.41 | 0.0 | 0 | 0.00 | 0.00 | 0.00 | 0.00 |
| 09/04/26 4:24:26 AM | 32 | 0.0 | 0.0 | 52 | 80 | 71.2 | 60.7 | 29.900 | 7.41 | 0.0 | 0 | 0.00 | 0.00 | 0.00 | 0.00 |
| 09/04/26 4:25:17 AM | 32 | 0.0 | 0.0 | 52 | 80 | 71.1 | 60.6 | 29.900 | 7.41 | 0.0 | 0 | 0.00 | 0.00 | 0.00 | 0.00 |
| 09/04/26 4:26:30 AM | 28 | 0.0 | 0.0 | 52 | 80 | 71.1 | 60.6 | 29.900 | 7.41 | 0.0 | 0 | 0.00 | 0.00 | 0.00 | 0.00 |
| 09/04/26 4:27:19 AM | 24 | 0.0 | 0.0 | 52 | 80 | 71.1 | 60.7 | 29.900 | 7.41 | 0.0 | 0 | 0.00 | 0.00 | 0.00 | 0.00 |
| 09/04/26 4:28:29 AM | 32 | 0.0 | 0.0 | 52 | 80 | 71.1 | 60.7 | 29.901 | 7.41 | 0.0 | 0 | 0.00 | 0.00 | 0.00 | 0.00 |
| 09/04/26 4:29:20 AM | 28 | 0.0 | 0.0 | 52 | 80 | 71.1 | 60.6 | 29.899 | 7.41 | 0.0 | 0 | 0.00 | 0.00 | 0.00 | 0.00 |
| 09/04/26 4:30:33 AM | 34 | 0.0 | 0.0 | 52 | 80 | 71.1 | 60.6 | 29.900 | 7.41 | 0.0 | 0 | 0.00 | 0.00 | 0.00 | 0.00 |
| 09/04/26 4:31:24 AM | 28 | 0.0 | 0.0 | 52 | 80 | 71.1 | 60.6 | 29.898 | 7.41 | 0.0 | 0 | 0.00 | 0.00 | 0.00 | 0.00 |
| 09/04/26 4:32:16 AM | 32 | 0.0 | 0.0 | 52 | 80 | 71.1 | 60.5 | 29.899 | 7.41 | 0.0 | 0 | 0.00 | 0.00 | 0.00 | 0.00 |
| 09/04/26 4:33:29 AM | 31 | 0.0 | 0.0 | 52 | 80 | 71.1 | 60.5 | 29.900 | 7.41 | 0.0 | 0 | 0.00 | 0.00 | 0.00 | 0.00 |
| 09/04/26 4:34:17 AM | 32 | 0.0 | 0.0 | 52 | 80 | 71.1 | 60.5 | 29.900 | 7.41 | 0.0 | 0 | 0.00 | 0.00 | 0.00 | 0.00 |
| 09/04/26 4:35:30 AM | 31 | 0.0 | 0.0 | 52 | 80 | 71.0 | 60.5 | 29.899 | 7.41 | 0.0 | 0 | 0.00 | 0.00 | 0.00 | 0.00 |
| 09/04/26 4:36:19 AM | 28 | 0.0 | 0.0 | 52 | 80 | 71.1 | 60.4 | 29.901 | 7.41 | 0.0 | 0 | 0.00 | 0.00 | 0.00 | 0.00 |
| 09/04/26 4:37:31 AM | 28 | 0.0 | 0.0 | 52 | 80 | 71.1 | 60.5 | 29.903 | 7.41 | 0.0 | 0 | 0.00 | 0.00 | 0.00 | 0.00 |
| 09/04/26 4:38:26 AM | 30 | 0.0 | 0.0 | 52 | 80 | 71.1 | 60.4 | 29.901 | 7.41 | 0.0 | 0 | 0.00 | 0.00 | 0.00 | 0.00 |
| 09/04/26 4:39:32 AM | 31 | 0.0 | 0.0 | 52 | 80 | 71.0 | 60.4 | 29.903 | 7.41 | 0.0 | 0 | 0.00 | 0.00 | 0.00 | 0.00 |
| 09/04/26 4:40:24 AM | 32 | 0.0 | 0.0 | 52 | 80 | 71.1 | 60.4 | 29.901 | 7.41 | 0.0 | 0 | 0.00 | 0.00 | 0.00 | 0.00 |
| 09/04/26 4:41:37 AM | 31 | 0.0 | 0.0 | 52 | 80 | 71.1 | 60.4 | 29.901 | 7.41 | 0.0 | 0 | 0.00 | 0.00 | 0.00 | 0.00 |
| 09/04/26 4:42:28 AM | 30 | 0.0 | 0.0 | 52 | 80 | 71.1 | 60.4 | 29.904 | 7.41 | 0.0 | 0 | 0.00 | 0.00 | 0.00 | 0.00 |
| 09/04/26 4:43:20 AM | 30 | 0.0 | 0.0 | 52 | 80 | 71.1 | 60.4 | 29.899 | 7.41 | 0.0 | 0 | 0.00 | 0.00 | 0.00 | 0.00 |
| 09/04/26 4:44:27 AM | 32 | 0.0 | 0.0 | 52 | 80 | 71.0 | 60.3 | 29.899 | 7.41 | 0.0 | 0 | 0.00 | 0.00 | 0.00 | 0.00 |
| 09/04/26 4:45:21 AM | 32 | 0.0 | 0.0 | 52 | 80 | 71.0 | 60.3 | 29.901 | 7.41 | 0.0 | 0 | 0.00 | 0.00 | 0.00 | 0.00 |
| 09/04/26 4:46:31 AM | 32 | 0.0 | 0.0 | 52 | 80 | 71.0 | 60.3 | 29.901 | 7.41 | 0.0 | 0 | 0.00 | 0.00 | 0.00 | 0.00 |
| 09/04/26 4:47:23 AM | 31 | 0.0 | 0.0 | 52 | 80 | 71.0 | 60.3 | 29.900 | 7.41 | 0.0 | 0 | 0.00 | 0.00 | 0.00 | 0.00 |
| 09/04/26 4:48:32 AM | 32 | 0.0 | 0.0 | 52 | 80 | 71.0 | 60.2 | 29.900 | 7.41 | 0.0 | 0 | 0.00 | 0.00 | 0.00 | 0.00 |
| 09/04/26 4:49:24 AM | 32 | 0.0 | 0.0 | 52 | 80 | 71.0 | 60.2 | 29.903 | 7.41 | 0.0 | 0 | 0.00 | 0.00 | 0.00 | 0.00 |
| 09/04/26 4:50:34 AM | 31 | 0.0 | 0.0 | 52 | 79 | 71.1 | 60.2 | 29.903 | 7.41 | 0.0 | 0 | 0.00 | 0.00 | 0.00 | 0.00 |
| 09/04/26 4:51:25 AM | 32 | 0.0 | 0.0 | 52 | 79 | 71.0 | 60.2 | 29.905 | 7.41 | 0.0 | 0 | 0.00 | 0.00 | 0.00 | 0.00 |
| 09/04/26 4:52:17 AM | 31 | 0.0 | 0.0 | 52 | 79 | 71.0 | 60.2 | 29.904 | 7.41 | 0.0 | 0 | 0.00 | 0.00 | 0.00 | 0.00 |
| 09/04/26 4:53:30 AM | 30 | 0.0 | 0.0 | 52 | 79 | 71.0 | 60.2 | 29.903 | 7.41 | 0.0 | 0 | 0.00 | 0.00 | 0.00 | 0.00 |
| 09/04/26 4:54:21 AM | 27 | 0.0 | 0.0 | 52 | 80 | 71.0 | 60.1 | 29.904 | 7.41 | 0.0 | 0 | 0.00 | 0.00 | 0.00 | 0.00 |
| 09/04/26 4:55:28 AM | 28 | 0.0 | 0.0 | 52 | 80 | 71.0 | 60.1 | 29.901 | 7.41 | 0.0 | 0 | 0.00 | 0.00 | 0.00 | 0.00 |
| 09/04/26 4:56:20 AM | 32 | 0.0 | 0.0 | 52 | 80 | 71.0 | 60.1 | 29.905 | 7.41 | 0.0 | 0 | 0.00 | 0.00 | 0.00 | 0.00 |
| 09/04/26 4:57:33 AM | 31 | 0.0 | 0.0 | 52 | 80 | 71.0 | 60.1 | 29.907 | 7.41 | 0.0 | 0 | 0.00 | 0.00 | 0.00 | 0.00 |
| 09/04/26 4:58:24 AM | 31 | 0.0 | 0.0 | 52 | 80 | 71.0 | 60.1 | 29.905 | 7.41 | 0.0 | 0 | 0.00 | 0.00 | 0.00 | 0.00 |
| 09/04/26 4:59:34 AM | 26 | 0.0 | 0.0 | 52 | 80 | 71.0 | 60.0 | 29.901 | 7.41 | 0.0 | 0 | 0.00 | 0.00 | 0.00 | 0.00 |
| 09/04/26 5:00:22 AM | 31 | 0.0 | 0.0 | 52 | 80 | 71.0 | 60.0 | 29.905 | 7.41 | 0.0 | 0 | 0.00 | 0.00 | 0.00 | 0.00 |
| 09/04/26 5:01:35 AM | 28 | 0.0 | 0.0 | 52 | 80 | 71.0 | 60.0 | 29.903 | 7.41 | 0.0 | 0 | 0.00 | 0.00 | 0.00 | 0.00 |
| 09/04/26 5:02:27 AM | 28 | 0.0 | 0.0 | 52 | 80 | 71.0 | 60.0 | 29.903 | 7.41 | 0.0 | 0 | 0.00 | 0.00 | 0.00 | 0.00 |
| 09/04/26 5:03:19 AM | 32 | 0.0 | 0.0 | 53 | 80 | 71.0 | 60.0 | 29.903 | 7.41 | 0.0 | 0 | 0.00 | 0.00 | 0.00 | 0.00 |
| 09/04/26 5:04:28 AM | 28 | 0.0 | 0.0 | 53 | 80 | 71.0 | 60.0 | 29.904 | 7.41 | 0.0 | 0 | 0.00 | 0.00 | 0.00 | 0.00 |
| 09/04/26 5:05:23 AM | 32 | 0.0 | 0.0 | 53 | 80 | 71.0 | 59.9 | 29.900 | 7.41 | 0.0 | 0 | 0.00 | 0.00 | 0.00 | 0.00 |
| 09/04/26 5:06:33 AM | 31 | 0.0 | 0.0 | 54 | 80 | 70.9 | 59.9 | 29.900 | 7.41 | 0.0 | 0 | 0.00 | 0.00 | 0.00 | 0.00 |
| 09/04/26 5:07:24 AM | 28 | 0.0 | 0.0 | 54 | 80 | 71.0 | 59.9 | 29.903 | 7.41 | 0.0 | 0 | 0.00 | 0.00 | 0.00 | 0.00 |
| 09/04/26 5:08:34 AM | 32 | 0.0 | 0.0 | 54 | 80 | 70.9 | 59.9 | 29.901 | 7.41 | 0.0 | 0 | 0.00 | 0.00 | 0.00 | 0.00 |
| 09/04/26 5:09:29 AM | 31 | 0.0 | 0.0 | 54 | 80 | 70.8 | 59.9 | 29.901 | 7.41 | 0.0 | 0 | 0.00 | 0.00 | 0.00 | 0.00 |
| 09/04/26 5:10:20 AM | 28 | 0.0 | 0.0 | 54 | 80 | 70.7 | 59.9 | 29.900 | 7.41 | 0.0 | 0 | 0.00 | 0.00 | 0.00 | 0.00 |
| 09/04/26 5:11:30 AM | 32 | 0.0 | 0.0 | 55 | 80 | 70.7 | 59.9 | 29.899 | 7.41 | 0.0 | 0 | 0.00 | 0.00 | 0.00 | 0.00 |
| 09/04/26 5:12:21 AM | 28 | 0.0 | 0.0 | 55 | 80 | 70.6 | 59.9 | 29.901 | 7.41 | 0.0 | 0 | 0.00 | 0.00 | 0.00 | 0.00 |
| 09/04/26 5:13:34 AM | 34 | 0.0 | 0.0 | 55 | 81 | 70.6 | 59.9 | 29.905 | 7.41 | 0.0 | 0 | 0.00 | 0.00 | 0.00 | 0.00 |
| 09/04/26 5:14:26 AM | 34 | 0.0 | 0.0 | 55 | 81 | 70.5 | 59.9 | 29.901 | 7.41 | 0.0 | 0 | 0.00 | 0.00 | 0.00 | 0.00 |
| 09/04/26 5:15:42 AM | 31 | 0.0 | 0.0 | 55 | 81 | 70.4 | 59.9 | 29.901 | 7.41 | 0.0 | 0 | 0.00 | 0.00 | 0.00 | 0.00 |
| 09/04/26 5:16:30 AM | 31 | 0.0 | 0.0 | 55 | 81 | 70.4 | 59.9 | 29.901 | 7.41 | 0.0 | 0 | 0.00 | 0.00 | 0.00 | 0.00 |
| 09/04/26 5:17:19 AM | 31 | 0.0 | 0.0 | 55 | 81 | 70.3 | 59.8 | 29.899 | 7.41 | 0.0 | 0 | 0.00 | 0.00 | 0.00 | 0.00 |
| 09/04/26 5:18:31 AM | 31 | 0.0 | 0.0 | 56 | 81 | 70.2 | 59.8 | 29.901 | 7.41 | 0.0 | 0 | 0.00 | 0.00 | 0.00 | 0.00 |
| 09/04/26 5:19:23 AM | 28 | 0.0 | 0.0 | 56 | 81 | 70.2 | 59.8 | 29.903 | 7.41 | 0.0 | 0 | 0.00 | 0.00 | 0.00 | 0.00 |
| 09/04/26 5:20:33 AM | 30 | 0.0 | 0.0 | 56 | 81 | 70.1 | 59.9 | 29.903 | 7.41 | 0.0 | 0 | 0.00 | 0.00 | 0.00 | 0.00 |
| 09/04/26 5:21:24 AM | 31 | 0.0 | 0.0 | 56 | 81 | 70.1 | 59.8 | 29.905 | 7.41 | 0.0 | 0 | 0.00 | 0.00 | 0.00 | 0.00 |
| 09/04/26 5:22:34 AM | 31 | 0.0 | 0.0 | 56 | 81 | 70.0 | 59.8 | 29.907 | 7.41 | 0.0 | 0 | 0.00 | 0.00 | 0.00 | 0.00 |
| 09/04/26 5:23:26 AM | 32 | 0.0 | 0.0 | 56 | 81 | 69.9 | 59.8 | 29.905 | 7.41 | 0.0 | 0 | 0.00 | 0.00 | 0.00 | 0.00 |
| 09/04/26 5:24:17 AM | 31 | 0.0 | 0.0 | 56 | 81 | 69.9 | 59.8 | 29.907 | 7.41 | 0.0 | 0 | 0.00 | 0.00 | 0.00 | 0.00 |
| 09/04/26 5:25:30 AM | 31 | 0.0 | 0.0 | 57 | 81 | 69.8 | 59.8 | 29.906 | 7.41 | 0.0 | 0 | 0.00 | 0.00 | 0.00 | 0.00 |
| 09/04/26 5:26:19 AM | 28 | 0.0 | 0.0 | 57 | 81 | 69.8 | 59.8 | 29.905 | 7.41 | 0.0 | 0 | 0.00 | 0.00 | 0.00 | 0.00 |
| 09/04/26 5:27:28 AM | 32 | 0.0 | 0.0 | 57 | 81 | 69.8 | 59.7 | 29.906 | 7.41 | 0.0 | 0 | 0.00 | 0.00 | 0.00 | 0.00 |
| 09/04/26 5:28:20 AM | 28 | 0.0 | 0.0 | 57 | 81 | 69.7 | 59.7 | 29.904 | 7.41 | 0.0 | 0 | 0.00 | 0.00 | 0.00 | 0.00 |
| 09/04/26 5:29:33 AM | 23 | 0.0 | 0.0 | 57 | 81 | 69.6 | 59.7 | 29.905 | 7.41 | 0.0 | 0 | 0.00 | 0.00 | 0.00 | 0.00 |
| 09/04/26 5:30:27 AM | 31 | 0.0 | 0.0 | 57 | 81 | 69.6 | 59.7 | 29.906 | 7.41 | 0.0 | 0 | 0.00 | 0.00 | 0.00 | 0.00 |
| 09/04/26 5:31:16 AM | 31 | 0.0 | 0.0 | 57 | 81 | 69.5 | 59.6 | 29.907 | 7.41 | 0.0 | 0 | 0.00 | 0.00 | 0.00 | 0.00 |
| 09/04/26 5:32:29 AM | 23 | 0.0 | 0.0 | 57 | 81 | 69.5 | 59.6 | 29.907 | 7.41 | 0.0 | 0 | 0.00 | 0.00 | 0.00 | 0.00 |
| 09/04/26 5:33:17 AM | 30 | 0.0 | 0.0 | 57 | 81 | 69.4 | 59.6 | 29.908 | 7.41 | 0.0 | 0 | 0.00 | 0.00 | 0.00 | 0.00 |
| 09/04/26 5:34:30 AM | 31 | 0.0 | 0.0 | 58 | 80 | 69.4 | 59.6 | 29.909 | 7.41 | 0.0 | 0 | 0.00 | 0.00 | 0.00 | 0.00 |
| 09/04/26 5:35:24 AM | 32 | 0.0 | 0.0 | 58 | 80 | 69.4 | 59.6 | 29.911 | 7.41 | 0.0 | 0 | 0.00 | 0.00 | 0.00 | 0.00 |
| 09/04/26 5:36:34 AM | 28 | 0.0 | 0.0 | 58 | 80 | 69.4 | 59.6 | 29.910 | 7.41 | 0.0 | 0 | 0.00 | 0.00 | 0.00 | 0.00 |
| 09/04/26 5:37:26 AM | 31 | 0.0 | 0.0 | 58 | 80 | 69.3 | 59.5 | 29.911 | 7.41 | 0.0 | 0 | 0.00 | 0.00 | 0.00 | 0.00 |
| 09/04/26 5:38:35 AM | 35 | 0.0 | 0.0 | 58 | 80 | 69.3 | 59.5 | 29.910 | 7.41 | 0.0 | 0 | 0.00 | 0.00 | 0.00 | 0.00 |
| 09/04/26 5:39:27 AM | 32 | 0.0 | 0.0 | 58 | 80 | 69.2 | 59.5 | 29.909 | 7.41 | 0.0 | 0 | 0.00 | 0.00 | 0.00 | 0.00 |
| 09/04/26 5:40:19 AM | 30 | 0.0 | 0.0 | 58 | 80 | 69.1 | 59.5 | 29.913 | 7.41 | 0.0 | 0 | 0.00 | 0.00 | 0.00 | 0.00 |
| 09/04/26 5:41:31 AM | 30 | 0.0 | 0.0 | 58 | 80 | 69.1 | 59.4 | 29.910 | 7.41 | 0.0 | 0 | 0.00 | 0.00 | 0.00 | 0.00 |
| 09/04/26 5:42:23 AM | 28 | 0.0 | 0.0 | 58 | 81 | 69.0 | 59.4 | 29.912 | 7.41 | 0.0 | 0 | 0.00 | 0.00 | 0.00 | 0.00 |
| 09/04/26 5:43:33 AM | 28 | 0.0 | 0.0 | 58 | 81 | 69.0 | 59.4 | 29.912 | 7.41 | 0.0 | 0 | 0.00 | 0.00 | 0.00 | 0.00 |
| 09/04/26 5:44:21 AM | 32 | 0.0 | 0.0 | 59 | 81 | 68.9 | 59.4 | 29.910 | 7.41 | 0.0 | 0 | 0.00 | 0.00 | 0.00 | 0.00 |
| 09/04/26 5:45:37 AM | 31 | 0.0 | 0.0 | 59 | 81 | 68.9 | 59.4 | 29.913 | 7.41 | 0.0 | 0 | 0.00 | 0.00 | 0.00 | 0.00 |
| 09/04/26 5:46:26 AM | 32 | 0.0 | 0.0 | 59 | 81 | 68.9 | 59.4 | 29.911 | 7.41 | 0.0 | 0 | 0.00 | 0.00 | 0.00 | 0.00 |
| 09/04/26 5:47:17 AM | 31 | 0.0 | 0.0 | 59 | 81 | 68.8 | 59.4 | 29.911 | 7.41 | 0.0 | 0 | 0.00 | 0.00 | 0.00 | 0.00 |
| 09/04/26 5:48:30 AM | 26 | 0.0 | 0.0 | 59 | 81 | 68.8 | 59.4 | 29.913 | 7.41 | 0.0 | 0 | 0.00 | 0.00 | 0.00 | 0.00 |
| 09/04/26 5:49:19 AM | 31 | 0.0 | 0.0 | 59 | 81 | 68.8 | 59.3 | 29.910 | 7.41 | 0.0 | 0 | 0.00 | 0.00 | 0.00 | 0.00 |
| 09/04/26 5:50:28 AM | 35 | 0.0 | 0.0 | 59 | 81 | 68.7 | 59.3 | 29.915 | 7.41 | 0.0 | 0 | 0.00 | 0.00 | 0.00 | 0.00 |
| 09/04/26 5:51:23 AM | 34 | 0.0 | 0.0 | 59 | 81 | 68.6 | 59.3 | 29.913 | 7.41 | 0.0 | 0 | 0.00 | 0.00 | 0.00 | 0.00 |
| 09/04/26 5:52:36 AM | 32 | 0.0 | 0.0 | 59 | 81 | 68.6 | 59.3 | 29.913 | 7.41 | 0.0 | 0 | 0.00 | 0.00 | 0.00 | 0.00 |
| 09/04/26 5:53:24 AM | 31 | 0.0 | 0.0 | 59 | 82 | 68.6 | 59.3 | 29.915 | 7.41 | 0.0 | 0 | 0.00 | 0.00 | 0.00 | 0.00 |
| 09/04/26 5:54:34 AM | 28 | 0.0 | 0.0 | 60 | 82 | 68.6 | 59.3 | 29.916 | 7.41 | 0.0 | 0 | 0.00 | 0.00 | 0.00 | 0.00 |
| 09/04/26 5:55:26 AM | 24 | 0.0 | 0.0 | 60 | 82 | 68.6 | 59.3 | 29.913 | 7.41 | 0.0 | 0 | 0.00 | 0.00 | 0.00 | 0.00 |
| 09/04/26 5:56:17 AM | 32 | 0.0 | 0.0 | 60 | 82 | 68.5 | 59.3 | 29.918 | 7.41 | 0.0 | 0 | 0.00 | 0.00 | 0.00 | 0.00 |
| 09/04/26 5:57:30 AM | 35 | 0.0 | 0.0 | 60 | 82 | 68.5 | 59.2 | 29.919 | 7.41 | 0.0 | 0 | 0.00 | 0.00 | 0.00 | 0.00 |
| 09/04/26 5:58:22 AM | 31 | 0.0 | 0.0 | 60 | 82 | 68.5 | 59.2 | 29.916 | 7.41 | 0.0 | 0 | 0.00 | 0.00 | 0.00 | 0.00 |
| 09/04/26 5:59:28 AM | 30 | 0.0 | 0.0 | 60 | 82 | 68.4 | 59.2 | 29.918 | 7.41 | 0.0 | 0 | 0.00 | 0.00 | 0.00 | 0.00 |
| 09/04/26 6:00:20 AM | 32 | 0.0 | 0.0 | 60 | 82 | 68.4 | 59.2 | 29.918 | 7.41 | 0.0 | 0 | 0.00 | 0.00 | 0.00 | 0.00 |
| 09/04/26 6:01:33 AM | 31 | 0.0 | 0.0 | 60 | 82 | 68.4 | 59.2 | 29.917 | 7.41 | 0.0 | 0 | 0.00 | 0.00 | 0.00 | 0.00 |
| 09/04/26 6:02:27 AM | 34 | 0.0 | 0.0 | 60 | 82 | 68.3 | 59.1 | 29.914 | 7.41 | 0.0 | 0 | 0.00 | 0.00 | 0.00 | 0.00 |
| 09/04/26 6:03:16 AM | 34 | 0.0 | 0.0 | 60 | 82 | 68.3 | 59.1 | 29.918 | 7.41 | 0.0 | 0 | 0.00 | 0.00 | 0.00 | 0.00 |
| 09/04/26 6:04:29 AM | 32 | 0.0 | 0.0 | 60 | 82 | 68.3 | 59.1 | 29.919 | 7.41 | 0.0 | 0 | 0.00 | 0.00 | 0.00 | 0.00 |
| 09/04/26 6:05:17 AM | 28 | 0.0 | 0.0 | 60 | 82 | 68.3 | 59.1 | 29.918 | 7.41 | 0.0 | 0 | 0.00 | 0.00 | 0.00 | 0.00 |
| 09/04/26 6:06:30 AM | 31 | 0.0 | 0.0 | 60 | 82 | 68.2 | 59.1 | 29.918 | 7.41 | 0.0 | 0 | 0.00 | 0.00 | 0.00 | 0.00 |
| 09/04/26 6:07:22 AM | 26 | 0.0 | 0.0 | 61 | 82 | 68.3 | 59.1 | 29.917 | 7.41 | 0.0 | 0 | 0.00 | 0.00 | 0.00 | 0.00 |
| 09/04/26 6:08:31 AM | 31 | 0.0 | 0.0 | 61 | 82 | 68.2 | 59.1 | 29.918 | 7.41 | 0.0 | 0 | 0.00 | 0.00 | 0.00 | 0.00 |
| 09/04/26 6:09:26 AM | 34 | 0.0 | 0.0 | 61 | 82 | 68.2 | 59.1 | 29.919 | 7.41 | 0.0 | 0 | 0.00 | 0.00 | 0.00 | 0.00 |
| 09/04/26 6:10:33 AM | 27 | 0.0 | 0.0 | 61 | 83 | 68.2 | 59.1 | 29.918 | 7.41 | 0.0 | 0 | 0.00 | 0.00 | 0.00 | 0.00 |
| 09/04/26 6:11:24 AM | 31 | 0.0 | 0.0 | 61 | 83 | 68.1 | 59.1 | 29.919 | 7.41 | 0.0 | 0 | 0.00 | 0.00 | 0.00 | 0.00 |
| 09/04/26 6:12:37 AM | 26 | 0.0 | 0.0 | 61 | 83 | 68.1 | 59.1 | 29.916 | 7.41 | 0.0 | 0 | 0.00 | 0.00 | 0.00 | 0.00 |
| 09/04/26 6:13:29 AM | 31 | 0.0 | 0.0 | 61 | 83 | 68.1 | 59.1 | 29.917 | 7.41 | 0.0 | 0 | 0.00 | 0.00 | 0.00 | 0.00 |
| 09/04/26 6:14:20 AM | 28 | 0.0 | 0.0 | 61 | 83 | 68.1 | 59.1 | 29.915 | 7.41 | 0.0 | 0 | 0.00 | 0.00 | 0.00 | 0.00 |
| 09/04/26 6:15:30 AM | 34 | 0.0 | 0.0 | 61 | 83 | 68.0 | 59.1 | 29.917 | 7.41 | 0.0 | 0 | 0.00 | 0.00 | 0.00 | 0.00 |
| 09/04/26 6:16:19 AM | 24 | 0.0 | 0.0 | 61 | 83 | 68.0 | 59.1 | 29.917 | 7.41 | 0.0 | 0 | 0.00 | 0.00 | 0.00 | 0.00 |
| 09/04/26 6:17:31 AM | 31 | 0.0 | 0.0 | 61 | 83 | 68.0 | 59.1 | 29.916 | 7.41 | 0.0 | 0 | 0.00 | 0.00 | 0.00 | 0.00 |
| 09/04/26 6:18:23 AM | 31 | 0.0 | 0.0 | 61 | 83 | 68.0 | 59.1 | 29.916 | 7.41 | 0.0 | 0 | 0.00 | 0.00 | 0.00 | 0.00 |
| 09/04/26 6:19:36 AM | 31 | 0.0 | 0.0 | 61 | 83 | 67.9 | 59.2 | 29.916 | 7.41 | 0.0 | 0 | 0.00 | 0.00 | 0.00 | 0.00 |
| 09/04/26 6:20:27 AM | 31 | 0.0 | 0.0 | 61 | 83 | 67.9 | 59.2 | 29.917 | 7.41 | 0.0 | 0 | 0.00 | 0.00 | 0.00 | 0.00 |
| 09/04/26 6:21:37 AM | 34 | 0.0 | 0.0 | 61 | 83 | 67.9 | 59.2 | 29.916 | 7.41 | 0.0 | 0 | 0.00 | 0.00 | 0.00 | 0.00 |
| 09/04/26 6:22:29 AM | 32 | 0.0 | 0.0 | 61 | 83 | 67.9 | 59.2 | 29.916 | 7.41 | 0.0 | 0 | 0.00 | 0.00 | 0.00 | 0.00 |
| 09/04/26 6:23:20 AM | 34 | 0.0 | 0.0 | 61 | 83 | 67.8 | 59.3 | 29.916 | 7.41 | 0.0 | 0 | 0.00 | 0.00 | 0.00 | 0.00 |
| 09/04/26 6:24:30 AM | 32 | 0.0 | 0.0 | 61 | 83 | 67.8 | 59.3 | 29.915 | 7.41 | 0.0 | 0 | 0.00 | 0.00 | 0.00 | 0.00 |
| 09/04/26 6:25:25 AM | 28 | 0.0 | 0.0 | 61 | 83 | 67.8 | 59.3 | 29.914 | 7.41 | 0.0 | 0 | 0.00 | 0.00 | 0.00 | 0.00 |
| 09/04/26 6:26:31 AM | 26 | 0.0 | 0.0 | 62 | 83 | 67.8 | 59.3 | 29.914 | 7.41 | 0.0 | 0 | 0.00 | 0.00 | 0.00 | 0.00 |
| 09/04/26 6:27:23 AM | 34 | 0.0 | 0.0 | 62 | 83 | 67.8 | 59.2 | 29.915 | 7.41 | 0.0 | 0 | 0.00 | 0.00 | 0.00 | 0.00 |
| 09/04/26 6:28:18 AM | 28 | 0.0 | 0.0 | 62 | 83 | 67.7 | 59.2 | 29.915 | 7.41 | 0.0 | 0 | 0.00 | 0.00 | 0.00 | 0.00 |
| 09/04/26 6:29:27 AM | 31 | 0.0 | 0.0 | 62 | 83 | 67.7 | 59.2 | 29.913 | 7.41 | 0.0 | 5 | 0.00 | 0.00 | 0.00 | 0.00 |
| 09/04/26 6:30:22 AM | 32 | 0.0 | 0.0 | 62 | 84 | 67.7 | 59.2 | 29.913 | 7.41 | 0.0 | 5 | 0.00 | 0.00 | 0.00 | 0.00 |
| 09/04/26 6:31:29 AM | 31 | 0.0 | 0.0 | 62 | 84 | 67.7 | 59.2 | 29.913 | 7.41 | 0.0 | 5 | 0.00 | 0.00 | 0.00 | 0.00 |
| 09/04/26 6:32:21 AM | 30 | 0.0 | 0.0 | 62 | 84 | 67.7 | 59.3 | 29.914 | 7.41 | 0.0 | 5 | 0.00 | 0.00 | 0.00 | 0.00 |
| 09/04/26 6:33:30 AM | 34 | 0.0 | 0.0 | 62 | 84 | 67.7 | 59.3 | 29.915 | 7.41 | 0.0 | 5 | 0.00 | 0.00 | 0.00 | 0.00 |
| 09/04/26 6:34:25 AM | 32 | 0.0 | 0.0 | 62 | 83 | 67.7 | 59.2 | 29.914 | 7.41 | 0.0 | 5 | 0.00 | 0.00 | 0.00 | 0.00 |
| 09/04/26 6:35:35 AM | 31 | 0.0 | 0.0 | 62 | 83 | 67.7 | 59.2 | 29.915 | 7.41 | 0.0 | 5 | 0.00 | 0.00 | 0.00 | 0.00 |
| 09/04/26 6:36:26 AM | 27 | 0.0 | 0.0 | 62 | 83 | 67.7 | 59.2 | 29.915 | 7.41 | 0.0 | 7 | 0.00 | 0.00 | 0.00 | 0.00 |
| 09/04/26 6:37:15 AM | 34 | 0.0 | 0.0 | 62 | 83 | 67.7 | 59.2 | 29.916 | 7.41 | 0.0 | 7 | 0.00 | 0.00 | 0.00 | 0.00 |
| 09/04/26 6:38:28 AM | 32 | 0.0 | 0.0 | 62 | 83 | 67.7 | 59.2 | 29.917 | 7.41 | 0.0 | 7 | 0.00 | 0.00 | 0.00 | 0.00 |
| 09/04/26 6:39:19 AM | 30 | 0.0 | 0.0 | 62 | 83 | 67.7 | 59.2 | 29.916 | 7.41 | 0.0 | 7 | 0.00 | 0.00 | 0.00 | 0.00 |
| 09/04/26 6:40:32 AM | 28 | 0.0 | 0.0 | 62 | 83 | 67.7 | 59.2 | 29.917 | 7.41 | 0.0 | 9 | 0.00 | 0.00 | 0.00 | 0.00 |
| 09/04/26 6:41:24 AM | 32 | 0.0 | 0.0 | 62 | 83 | 67.6 | 59.2 | 29.915 | 7.41 | 0.0 | 9 | 0.00 | 0.00 | 0.00 | 0.00 |
| 09/04/26 6:42:31 AM | 30 | 0.0 | 0.0 | 62 | 83 | 67.6 | 59.1 | 29.917 | 7.41 | 0.0 | 9 | 0.00 | 0.00 | 0.00 | 0.00 |
| 09/04/26 6:43:22 AM | 32 | 0.0 | 0.0 | 62 | 83 | 67.6 | 59.1 | 29.917 | 7.41 | 0.0 | 9 | 0.00 | 0.00 | 0.00 | 0.00 |
| 09/04/26 6:44:32 AM | 28 | 0.0 | 0.0 | 62 | 83 | 67.6 | 59.1 | 29.918 | 7.41 | 0.0 | 11 | 0.00 | 0.00 | 0.00 | 0.00 |
| 09/04/26 6:45:27 AM | 30 | 0.0 | 0.0 | 62 | 83 | 67.6 | 59.1 | 29.918 | 7.41 | 0.0 | 11 | 0.00 | 0.00 | 0.00 | 0.00 |
| 09/04/26 6:46:19 AM | 32 | 0.0 | 0.0 | 62 | 83 | 67.6 | 59.1 | 29.915 | 7.41 | 0.0 | 12 | 0.00 | 0.00 | 0.00 | 0.00 |
| 09/04/26 6:47:25 AM | 26 | 0.0 | 0.0 | 62 | 83 | 67.6 | 59.1 | 29.916 | 7.41 | 0.0 | 12 | 0.00 | 0.00 | 0.00 | 0.00 |
| 09/04/26 6:48:17 AM | 28 | 0.0 | 0.0 | 62 | 83 | 67.5 | 59.1 | 29.917 | 7.41 | 0.0 | 14 | 0.00 | 0.00 | 0.00 | 0.00 |
| 09/04/26 6:49:30 AM | 28 | 0.0 | 0.0 | 62 | 83 | 67.5 | 59.1 | 29.915 | 7.41 | 0.0 | 14 | 0.00 | 0.00 | 0.00 | 0.00 |
| 09/04/26 6:50:24 AM | 32 | 0.0 | 0.0 | 62 | 83 | 67.5 | 59.1 | 29.915 | 7.41 | 0.0 | 16 | 0.00 | 0.00 | 0.00 | 0.00 |
| 09/04/26 6:51:34 AM | 34 | 0.0 | 0.0 | 62 | 83 | 67.5 | 59.1 | 29.916 | 7.41 | 0.0 | 18 | 0.00 | 0.00 | 0.00 | 0.00 |
| 09/04/26 6:52:26 AM | 27 | 0.0 | 0.0 | 62 | 83 | 67.5 | 59.1 | 29.916 | 7.41 | 0.0 | 18 | 0.00 | 0.00 | 0.00 | 0.00 |
| 09/04/26 6:53:35 AM | 30 | 0.0 | 0.0 | 62 | 83 | 67.5 | 59.1 | 29.916 | 7.41 | 0.0 | 21 | 0.00 | 0.00 | 0.00 | 0.00 |
| 09/04/26 6:54:27 AM | 29 | 0.0 | 0.0 | 62 | 83 | 67.5 | 59.1 | 29.916 | 7.41 | 0.0 | 21 | 0.00 | 0.00 | 0.00 | 0.00 |
| 09/04/26 6:55:19 AM | 32 | 0.0 | 0.0 | 62 | 83 | 67.4 | 59.0 | 29.916 | 7.41 | 0.0 | 21 | 0.00 | 0.00 | 0.00 | 0.00 |
| 09/04/26 6:56:31 AM | 31 | 0.0 | 0.0 | 62 | 83 | 67.4 | 59.1 | 29.916 | 7.41 | 0.0 | 21 | 0.00 | 0.00 | 0.00 | 0.00 |
| 09/04/26 6:57:20 AM | 28 | 0.0 | 0.0 | 62 | 84 | 67.4 | 59.0 | 29.917 | 7.41 | 0.0 | 21 | 0.00 | 0.00 | 0.00 | 0.00 |
| 09/04/26 6:58:30 AM | 32 | 0.0 | 0.0 | 62 | 84 | 67.4 | 59.1 | 29.915 | 7.41 | 0.0 | 25 | 0.00 | 0.00 | 0.00 | 0.00 |
| 09/04/26 6:59:25 AM | 31 | 0.0 | 0.0 | 62 | 84 | 67.4 | 59.1 | 29.917 | 7.41 | 0.0 | 28 | 0.00 | 0.00 | 0.00 | 0.00 |
| 09/04/26 7:00:34 AM | 30 | 0.0 | 0.0 | 62 | 84 | 67.4 | 59.1 | 29.917 | 7.41 | 0.0 | 26 | 0.00 | 0.00 | 0.00 | 0.00 |
| 09/04/26 7:01:26 AM | 32 | 0.0 | 0.0 | 62 | 84 | 67.4 | 59.1 | 29.919 | 7.41 | 0.0 | 26 | 0.00 | 0.00 | 0.00 | 0.00 |
| 09/04/26 7:02:18 AM | 31 | 0.0 | 0.0 | 62 | 84 | 67.4 | 59.2 | 29.918 | 7.41 | 0.0 | 26 | 0.00 | 0.00 | 0.00 | 0.00 |
| 09/04/26 7:03:24 AM | 28 | 0.0 | 0.0 | 63 | 84 | 67.4 | 59.2 | 29.920 | 7.41 | 0.0 | 33 | 0.00 | 0.00 | 0.00 | 0.00 |
| 09/04/26 7:04:16 AM | 26 | 0.0 | 0.0 | 63 | 84 | 67.4 | 59.2 | 29.921 | 7.41 | 0.0 | 33 | 0.00 | 0.00 | 0.00 | 0.00 |
| 09/04/26 7:05:29 AM | 32 | 0.0 | 0.0 | 63 | 84 | 67.4 | 59.2 | 29.920 | 7.41 | 0.0 | 33 | 0.00 | 0.00 | 0.00 | 0.00 |
| 09/04/26 7:06:20 AM | 32 | 0.0 | 0.0 | 63 | 84 | 67.4 | 59.3 | 29.921 | 7.41 | 0.0 | 39 | 0.00 | 0.00 | 0.00 | 0.00 |
| 09/04/26 7:07:33 AM | 32 | 0.0 | 0.0 | 63 | 84 | 67.4 | 59.2 | 29.923 | 7.41 | 0.0 | 47 | 0.00 | 0.00 | 0.00 | 0.00 |
| 09/04/26 7:08:25 AM | 28 | 0.0 | 0.0 | 63 | 84 | 67.4 | 59.3 | 29.921 | 7.41 | 0.0 | 47 | 0.00 | 0.00 | 0.00 | 0.00 |
| 09/04/26 7:09:35 AM | 28 | 0.0 | 0.0 | 63 | 84 | 67.4 | 59.3 | 29.923 | 7.41 | 0.0 | 58 | 0.00 | 0.00 | 0.00 | 0.00 |
| 09/04/26 7:10:23 AM | 32 | 0.0 | 0.0 | 63 | 84 | 67.4 | 59.3 | 29.921 | 7.41 | 0.0 | 58 | 0.00 | 0.00 | 0.00 | 0.00 |
| 09/04/26 7:11:18 AM | 32 | 0.0 | 0.0 | 63 | 84 | 67.3 | 59.3 | 29.925 | 7.41 | 0.0 | 62 | 0.00 | 0.00 | 0.00 | 0.00 |
| 09/04/26 7:12:28 AM | 31 | 0.0 | 0.0 | 63 | 84 | 67.3 | 59.3 | 29.921 | 7.41 | 0.0 | 63 | 0.00 | 0.00 | 0.00 | 0.00 |
| 09/04/26 7:13:19 AM | 32 | 0.0 | 0.0 | 63 | 84 | 67.3 | 59.3 | 29.923 | 7.41 | 0.0 | 63 | 0.00 | 0.00 | 0.00 | 0.00 |
| 09/04/26 7:14:29 AM | 31 | 0.0 | 0.0 | 63 | 84 | 67.3 | 59.4 | 29.923 | 7.41 | 0.0 | 70 | 0.00 | 0.00 | 0.00 | 0.00 |
| 09/04/26 7:15:21 AM | 32 | 0.0 | 0.0 | 63 | 84 | 67.3 | 59.4 | 29.924 | 7.41 | 0.0 | 74 | 0.00 | 0.00 | 0.00 | 0.00 |
| 09/04/26 7:16:30 AM | 34 | 0.0 | 0.0 | 63 | 84 | 67.3 | 59.5 | 29.924 | 7.41 | 0.0 | 77 | 0.00 | 0.00 | 0.00 | 0.00 |
| 09/04/26 7:17:25 AM | 32 | 0.0 | 0.0 | 63 | 84 | 67.3 | 59.5 | 29.927 | 7.41 | 0.0 | 77 | 0.00 | 0.00 | 0.00 | 0.00 |
| 09/04/26 7:18:35 AM | 30 | 0.0 | 0.0 | 63 | 84 | 67.4 | 59.6 | 29.927 | 7.41 | 0.0 | 83 | 0.00 | 0.00 | 0.00 | 0.00 |
| 09/04/26 7:19:23 AM | 30 | 0.0 | 0.0 | 63 | 84 | 67.4 | 59.6 | 29.925 | 7.41 | 0.0 | 84 | 0.00 | 0.00 | 0.00 | 0.00 |
| 09/04/26 7:20:36 AM | 32 | 0.0 | 0.0 | 63 | 84 | 67.4 | 59.6 | 29.927 | 7.41 | 0.0 | 88 | 0.00 | 0.00 | 0.00 | 0.00 |
| 09/04/26 7:21:28 AM | 27 | 0.0 | 0.0 | 63 | 84 | 67.4 | 59.7 | 29.926 | 7.41 | 0.0 | 88 | 0.00 | 0.00 | 0.00 | 0.00 |
| 09/04/26 7:22:19 AM | 34 | 0.0 | 0.0 | 63 | 84 | 67.3 | 59.8 | 29.925 | 7.41 | 0.0 | 93 | 0.00 | 0.00 | 0.00 | 0.00 |
| 09/04/26 7:23:29 AM | 31 | 0.0 | 0.0 | 63 | 84 | 67.3 | 59.8 | 29.926 | 7.41 | 0.0 | 93 | 0.00 | 0.00 | 0.00 | 0.00 |
| 09/04/26 7:24:24 AM | 30 | 0.0 | 0.0 | 63 | 84 | 67.3 | 59.9 | 29.927 | 7.41 | 0.0 | 93 | 0.00 | 0.00 | 0.00 | 0.00 |
| 09/04/26 7:25:31 AM | 34 | 0.0 | 0.0 | 63 | 84 | 67.4 | 59.9 | 29.927 | 7.41 | 0.0 | 105 | 0.00 | 0.00 | 0.00 | 0.00 |
| 09/04/26 7:26:22 AM | 32 | 0.0 | 0.0 | 63 | 84 | 67.4 | 60.0 | 29.927 | 7.41 | 0.0 | 107 | 0.00 | 0.00 | 0.00 | 0.00 |
| 09/04/26 7:27:32 AM | 28 | 0.0 | 0.0 | 63 | 84 | 67.4 | 60.1 | 29.928 | 7.41 | 0.0 | 107 | 0.00 | 0.00 | 0.00 | 0.00 |
| 09/04/26 7:28:27 AM | 28 | 0.0 | 0.0 | 63 | 84 | 67.4 | 60.2 | 29.929 | 7.41 | 0.0 | 107 | 0.00 | 0.00 | 0.00 | 0.00 |
| 09/04/26 7:29:18 AM | 28 | 0.0 | 0.0 | 63 | 84 | 67.4 | 60.2 | 29.930 | 7.41 | 0.0 | 107 | 0.00 | 0.00 | 0.00 | 0.00 |
| 09/04/26 7:30:28 AM | 31 | 0.0 | 0.0 | 63 | 84 | 67.4 | 60.3 | 29.930 | 7.41 | 0.0 | 120 | 0.00 | 0.00 | 0.00 | 0.00 |
| 09/04/26 7:31:17 AM | 31 | 0.0 | 0.0 | 63 | 84 | 67.4 | 60.4 | 29.930 | 7.41 | 0.0 | 121 | 0.00 | 0.00 | 0.00 | 0.00 |
| 09/04/26 7:32:30 AM | 26 | 0.0 | 0.0 | 63 | 85 | 67.4 | 60.5 | 29.930 | 7.41 | 0.0 | 125 | 0.00 | 0.00 | 0.00 | 0.00 |
| 09/04/26 7:33:21 AM | 35 | 0.0 | 0.0 | 63 | 85 | 67.4 | 60.7 | 29.932 | 7.41 | 0.0 | 125 | 0.00 | 0.00 | 0.00 | 0.00 |
| 09/04/26 7:34:34 AM | 28 | 0.0 | 0.0 | 63 | 85 | 67.4 | 60.8 | 29.928 | 7.41 | 0.0 | 125 | 0.00 | 0.00 | 0.00 | 0.00 |
| 09/04/26 7:35:23 AM | 30 | 0.0 | 0.0 | 63 | 85 | 67.5 | 60.9 | 29.929 | 7.41 | 0.0 | 134 | 0.00 | 0.00 | 0.00 | 0.00 |
| 09/04/26 7:36:32 AM | 31 | 0.0 | 0.0 | 63 | 85 | 67.4 | 61.1 | 29.929 | 7.41 | 0.0 | 137 | 0.00 | 0.00 | 0.00 | 0.00 |
| 09/04/26 7:37:27 AM | 28 | 0.0 | 0.0 | 63 | 84 | 67.5 | 61.2 | 29.929 | 7.41 | 0.0 | 139 | 0.00 | 0.00 | 0.00 | 0.00 |
| 09/04/26 7:38:19 AM | 28 | 0.0 | 0.0 | 63 | 84 | 67.5 | 61.3 | 29.931 | 7.41 | 0.0 | 142 | 0.00 | 0.00 | 0.00 | 0.00 |
| 09/04/26 7:39:29 AM | 34 | 0.0 | 0.0 | 63 | 84 | 67.5 | 61.5 | 29.930 | 7.41 | 0.0 | 149 | 0.00 | 0.00 | 0.00 | 0.00 |
| 09/04/26 7:40:20 AM | 27 | 0.0 | 0.0 | 63 | 84 | 67.5 | 61.6 | 29.931 | 7.41 | 0.0 | 153 | 0.00 | 0.00 | 0.00 | 0.00 |
| 09/04/26 7:41:30 AM | 28 | 0.0 | 0.0 | 63 | 84 | 67.5 | 61.7 | 29.929 | 7.41 | 0.0 | 156 | 0.00 | 0.00 | 0.00 | 0.00 |
| 09/04/26 7:42:22 AM | 31 | 0.0 | 0.0 | 63 | 84 | 67.5 | 61.7 | 29.930 | 7.41 | 0.0 | 156 | 0.00 | 0.00 | 0.00 | 0.00 |
| 09/04/26 7:43:34 AM | 30 | 0.0 | 0.0 | 63 | 84 | 67.5 | 61.9 | 29.930 | 7.41 | 0.0 | 162 | 0.00 | 0.00 | 0.00 | 0.00 |
| 09/04/26 7:44:26 AM | 31 | 0.0 | 0.0 | 64 | 84 | 67.5 | 61.9 | 29.931 | 7.41 | 0.0 | 165 | 0.00 | 0.00 | 0.00 | 0.00 |
| 09/04/26 7:45:42 AM | 35 | 0.0 | 0.0 | 64 | 84 | 67.6 | 62.1 | 29.930 | 7.41 | 0.0 | 167 | 0.00 | 0.00 | 0.00 | 0.00 |
| 09/04/26 7:46:28 AM | 30 | 0.0 | 0.0 | 64 | 84 | 67.6 | 62.2 | 29.930 | 7.41 | 0.0 | 167 | 0.00 | 0.00 | 0.00 | 0.00 |
| 09/04/26 7:47:19 AM | 27 | 0.0 | 0.0 | 64 | 83 | 67.6 | 62.3 | 29.932 | 7.41 | 0.0 | 167 | 0.00 | 0.00 | 0.00 | 0.00 |
| 09/04/26 7:48:29 AM | 31 | 0.0 | 0.0 | 64 | 83 | 67.6 | 62.5 | 29.931 | 7.41 | 0.0 | 176 | 0.00 | 0.00 | 0.00 | 0.00 |
| 09/04/26 7:49:21 AM | 32 | 0.0 | 0.0 | 64 | 83 | 67.6 | 62.6 | 29.929 | 7.41 | 0.0 | 176 | 0.00 | 0.00 | 0.00 | 0.00 |
| 09/04/26 7:50:31 AM | 31 | 0.0 | 0.0 | 64 | 83 | 67.6 | 62.8 | 29.929 | 7.41 | 0.0 | 176 | 0.00 | 0.00 | 0.00 | 0.00 |
| 09/04/26 7:51:25 AM | 32 | 0.0 | 0.0 | 64 | 82 | 67.6 | 62.9 | 29.929 | 7.41 | 0.0 | 181 | 0.00 | 0.00 | 0.00 | 0.00 |
| 09/04/26 7:52:32 AM | 31 | 0.0 | 0.0 | 64 | 82 | 67.7 | 63.1 | 29.931 | 7.41 | 0.0 | 183 | 0.00 | 0.00 | 0.00 | 0.00 |
| 09/04/26 7:53:24 AM | 32 | 0.0 | 0.0 | 64 | 82 | 67.7 | 63.2 | 29.930 | 7.41 | 0.0 | 183 | 0.00 | 0.00 | 0.00 | 0.00 |
| 09/04/26 7:54:36 AM | 28 | 0.0 | 0.0 | 64 | 82 | 67.7 | 63.4 | 29.931 | 7.41 | 0.0 | 183 | 0.00 | 0.00 | 0.00 | 0.00 |
| 09/04/26 7:55:28 AM | 31 | 0.0 | 0.0 | 64 | 82 | 67.7 | 63.5 | 29.931 | 7.41 | 0.0 | 183 | 0.00 | 0.00 | 0.00 | 0.00 |
| 09/04/26 7:56:20 AM | 32 | 0.0 | 0.0 | 64 | 82 | 67.7 | 63.6 | 29.931 | 7.41 | 0.0 | 183 | 0.00 | 0.00 | 0.00 | 0.00 |
| 09/04/26 7:57:27 AM | 32 | 0.0 | 0.0 | 64 | 81 | 67.7 | 63.7 | 29.930 | 7.41 | 0.0 | 183 | 0.00 | 0.00 | 0.00 | 0.00 |
| 09/04/26 7:58:18 AM | 31 | 0.0 | 0.0 | 64 | 81 | 67.7 | 63.8 | 29.931 | 7.41 | 0.0 | 181 | 0.00 | 0.00 | 0.00 | 0.00 |
| 09/04/26 7:59:31 AM | 30 | 0.0 | 0.0 | 64 | 81 | 67.8 | 64.0 | 29.929 | 7.41 | 0.0 | 181 | 0.00 | 0.00 | 0.00 | 0.00 |
| 09/04/26 8:00:23 AM | 31 | 0.0 | 0.0 | 64 | 81 | 67.8 | 64.0 | 29.926 | 7.41 | 0.0 | 181 | 0.00 | 0.00 | 0.00 | 0.00 |
| 09/04/26 8:01:36 AM | 31 | 0.0 | 0.0 | 64 | 80 | 67.8 | 64.2 | 29.928 | 7.41 | 0.0 | 181 | 0.00 | 0.00 | 0.00 | 0.00 |
| 09/04/26 8:02:21 AM | 26 | 0.0 | 0.0 | 64 | 80 | 67.8 | 64.3 | 29.927 | 7.41 | 0.0 | 181 | 0.00 | 0.00 | 0.00 | 0.00 |
| 09/04/26 8:03:31 AM | 30 | 0.0 | 0.0 | 65 | 80 | 67.8 | 64.4 | 29.928 | 7.41 | 0.5 | 181 | 0.00 | 0.00 | 0.00 | 0.00 |
| 09/04/26 8:04:26 AM | 31 | 0.0 | 0.0 | 65 | 80 | 67.8 | 64.6 | 29.926 | 7.41 | 0.5 | 183 | 0.00 | 0.00 | 0.00 | 0.00 |
| 09/04/26 8:05:17 AM | 28 | 0.0 | 0.0 | 65 | 79 | 67.8 | 64.7 | 29.926 | 7.41 | 0.5 | 183 | 0.00 | 0.00 | 0.00 | 0.00 |
| 09/04/26 8:06:30 AM | 31 | 0.0 | 0.0 | 65 | 79 | 67.9 | 64.8 | 29.926 | 7.41 | 0.5 | 188 | 0.00 | 0.00 | 0.00 | 0.00 |
| 09/04/26 8:07:22 AM | 32 | 0.0 | 0.0 | 65 | 79 | 67.9 | 64.9 | 29.929 | 7.41 | 0.5 | 193 | 0.00 | 0.00 | 0.00 | 0.00 |
| 09/04/26 8:08:29 AM | 32 | 0.0 | 0.0 | 65 | 79 | 67.8 | 65.0 | 29.925 | 7.41 | 0.5 | 193 | 0.00 | 0.00 | 0.00 | 0.00 |
| 09/04/26 8:09:20 AM | 31 | 0.0 | 0.0 | 65 | 78 | 67.9 | 65.1 | 29.925 | 7.41 | 0.5 | 193 | 0.00 | 0.00 | 0.00 | 0.00 |
| 09/04/26 8:10:33 AM | 34 | 0.0 | 0.0 | 65 | 78 | 67.9 | 65.4 | 29.924 | 7.41 | 0.5 | 211 | 0.00 | 0.00 | 0.00 | 0.00 |
| 09/04/26 8:11:25 AM | 31 | 0.0 | 0.0 | 65 | 78 | 67.9 | 65.5 | 29.928 | 7.41 | 0.5 | 227 | 0.00 | 0.00 | 0.00 | 0.00 |
| 09/04/26 8:12:20 AM | 31 | 0.0 | 0.0 | 65 | 78 | 67.9 | 65.6 | 29.926 | 7.41 | 0.5 | 234 | 0.00 | 0.00 | 0.00 | 0.00 |
| 09/04/26 8:13:27 AM | 31 | 0.0 | 0.0 | 65 | 77 | 67.9 | 65.7 | 29.926 | 7.41 | 0.6 | 241 | 0.00 | 0.00 | 0.00 | 0.00 |
| 09/04/26 8:14:18 AM | 29 | 0.0 | 0.0 | 65 | 77 | 67.9 | 65.8 | 29.926 | 7.41 | 0.6 | 241 | 0.00 | 0.00 | 0.00 | 0.00 |
| 09/04/26 8:15:31 AM | 30 | 0.0 | 0.0 | 65 | 77 | 68.0 | 65.9 | 29.926 | 7.41 | 0.6 | 241 | 0.00 | 0.00 | 0.00 | 0.00 |
| 09/04/26 8:16:23 AM | 30 | 0.0 | 0.0 | 65 | 76 | 68.0 | 66.0 | 29.926 | 7.41 | 0.6 | 241 | 0.00 | 0.00 | 0.00 | 0.00 |
| 09/04/26 8:17:36 AM | 28 | 0.0 | 0.0 | 65 | 76 | 68.0 | 66.1 | 29.925 | 7.41 | 0.6 | 271 | 0.00 | 0.00 | 0.00 | 0.00 |
| 09/04/26 8:18:24 AM | 31 | 0.0 | 0.0 | 65 | 76 | 68.1 | 66.2 | 29.926 | 7.41 | 0.6 | 276 | 0.00 | 0.00 | 0.00 | 0.00 |
| 09/04/26 8:19:37 AM | 31 | 0.0 | 0.0 | 65 | 75 | 68.1 | 66.4 | 29.925 | 7.41 | 0.7 | 281 | 0.00 | 0.00 | 0.00 | 0.00 |
| 09/04/26 8:20:29 AM | 32 | 0.0 | 0.0 | 65 | 75 | 68.1 | 66.5 | 29.927 | 7.41 | 0.7 | 285 | 0.00 | 0.00 | 0.00 | 0.00 |
| 09/04/26 8:21:20 AM | 31 | 0.0 | 0.0 | 65 | 75 | 68.1 | 66.7 | 29.929 | 7.41 | 0.7 | 285 | 0.00 | 0.00 | 0.00 | 0.00 |
| 09/04/26 8:22:33 AM | 28 | 0.0 | 0.0 | 65 | 75 | 68.1 | 66.8 | 29.930 | 7.41 | 0.7 | 294 | 0.00 | 0.00 | 0.00 | 0.00 |
| 09/04/26 8:23:25 AM | 30 | 0.0 | 0.0 | 65 | 74 | 68.1 | 67.0 | 29.930 | 7.41 | 0.7 | 294 | 0.00 | 0.00 | 0.00 | 0.00 |
| 09/04/26 8:24:32 AM | 31 | 0.0 | 0.0 | 65 | 74 | 68.1 | 67.1 | 29.930 | 7.41 | 0.7 | 301 | 0.00 | 0.00 | 0.00 | 0.00 |
| 09/04/26 8:25:23 AM | 31 | 2.0 | 3.0 | 65 | 74 | 68.1 | 67.2 | 29.929 | 7.41 | 0.7 | 304 | 0.00 | 0.00 | 0.00 | 0.00 |
| 09/04/26 8:26:36 AM | 28 | 2.0 | 3.0 | 65 | 73 | 68.1 | 67.3 | 29.926 | 7.41 | 0.8 | 306 | 0.00 | 0.00 | 0.00 | 0.00 |
| 09/04/26 8:27:28 AM | 31 | 3.0 | 4.0 | 65 | 73 | 68.2 | 67.4 | 29.931 | 7.41 | 0.8 | 309 | 0.00 | 0.00 | 0.00 | 0.00 |
| 09/04/26 8:28:20 AM | 34 | 2.0 | 4.0 | 65 | 73 | 68.2 | 67.4 | 29.926 | 7.41 | 0.8 | 309 | 0.00 | 0.00 | 0.00 | 0.00 |
| 09/04/26 8:29:26 AM | 31 | 3.0 | 4.0 | 65 | 72 | 68.3 | 67.5 | 29.931 | 7.41 | 0.8 | 316 | 0.00 | 0.00 | 0.00 | 0.00 |
| 09/04/26 8:30:21 AM | 30 | 3.0 | 4.0 | 65 | 72 | 68.2 | 67.5 | 29.929 | 7.41 | 0.8 | 320 | 0.00 | 0.00 | 0.00 | 0.00 |
| 09/04/26 8:31:31 AM | 31 | 2.0 | 4.0 | 65 | 72 | 68.3 | 67.5 | 29.927 | 7.41 | 0.8 | 320 | 0.00 | 0.00 | 0.00 | 0.00 |
| 09/04/26 8:32:23 AM | 32 | 2.0 | 4.0 | 65 | 72 | 68.3 | 67.6 | 29.927 | 7.41 | 0.8 | 320 | 0.00 | 0.00 | 0.00 | 0.00 |
| 09/04/26 8:33:35 AM | 31 | 2.0 | 4.0 | 65 | 72 | 68.3 | 67.6 | 29.926 | 7.41 | 0.8 | 327 | 0.00 | 0.00 | 0.00 | 0.00 |
| 09/04/26 8:34:24 AM | 32 | 1.0 | 4.0 | 65 | 71 | 68.3 | 67.6 | 29.927 | 7.41 | 0.8 | 327 | 0.00 | 0.00 | 0.00 | 0.00 |
| 09/04/26 8:35:34 AM | 30 | 2.0 | 4.0 | 65 | 72 | 68.3 | 67.6 | 29.930 | 7.41 | 0.9 | 327 | 0.00 | 0.00 | 0.00 | 0.00 |
| 09/04/26 8:36:26 AM | 32 | 3.0 | 4.0 | 65 | 72 | 68.4 | 67.7 | 29.926 | 7.41 | 0.9 | 338 | 0.00 | 0.00 | 0.00 | 0.00 |
| 09/04/26 8:37:17 AM | 31 | 1.0 | 4.0 | 65 | 71 | 68.4 | 67.7 | 29.926 | 7.41 | 0.9 | 341 | 0.00 | 0.00 | 0.00 | 0.00 |
| 09/04/26 8:38:30 AM | 32 | 0.0 | 4.0 | 65 | 71 | 68.4 | 67.8 | 29.925 | 7.41 | 0.9 | 348 | 0.00 | 0.00 | 0.00 | 0.00 |
| 09/04/26 8:39:22 AM | 32 | 0.0 | 4.0 | 65 | 71 | 68.4 | 67.8 | 29.927 | 7.41 | 0.9 | 348 | 0.00 | 0.00 | 0.00 | 0.00 |
| 09/04/26 8:40:32 AM | 28 | 2.0 | 4.0 | 65 | 71 | 68.4 | 67.9 | 29.927 | 7.41 | 1.0 | 352 | 0.00 | 0.00 | 0.00 | 0.00 |
| 09/04/26 8:41:20 AM | 30 | 1.0 | 4.0 | 65 | 71 | 68.5 | 68.0 | 29.927 | 7.41 | 1.0 | 353 | 0.00 | 0.00 | 0.00 | 0.00 |
| 09/04/26 8:42:33 AM | 32 | 0.0 | 4.0 | 65 | 71 | 68.5 | 68.1 | 29.925 | 7.41 | 1.0 | 357 | 0.00 | 0.00 | 0.00 | 0.00 |
| 09/04/26 8:43:25 AM | 31 | 0.0 | 4.0 | 65 | 71 | 68.5 | 68.1 | 29.928 | 7.41 | 1.0 | 357 | 0.00 | 0.00 | 0.00 | 0.00 |
| 09/04/26 8:44:17 AM | 32 | 2.0 | 4.0 | 65 | 71 | 68.5 | 68.2 | 29.927 | 7.41 | 1.0 | 362 | 0.00 | 0.00 | 0.00 | 0.00 |
| 09/04/26 8:45:27 AM | 30 | 0.0 | 4.0 | 65 | 71 | 68.5 | 68.3 | 29.927 | 7.41 | 1.0 | 364 | 0.00 | 0.00 | 0.00 | 0.00 |
| 09/04/26 8:46:18 AM | 28 | 3.0 | 4.0 | 65 | 71 | 68.6 | 68.4 | 29.926 | 7.41 | 1.0 | 366 | 0.00 | 0.00 | 0.00 | 0.00 |
| 09/04/26 8:47:28 AM | 30 | 1.0 | 4.0 | 65 | 70 | 68.6 | 68.5 | 29.926 | 7.41 | 1.0 | 366 | 0.00 | 0.00 | 0.00 | 0.00 |
| 09/04/26 8:48:20 AM | 32 | 2.0 | 4.0 | 65 | 70 | 68.6 | 68.5 | 29.928 | 7.41 | 1.1 | 367 | 0.00 | 0.00 | 0.00 | 0.00 |
| 09/04/26 8:49:33 AM | 32 | 0.0 | 4.0 | 65 | 70 | 68.6 | 68.6 | 29.927 | 7.41 | 1.1 | 369 | 0.00 | 0.00 | 0.00 | 0.00 |
| 09/04/26 8:50:21 AM | 28 | 0.0 | 4.0 | 65 | 70 | 68.7 | 68.6 | 29.927 | 7.41 | 1.1 | 373 | 0.00 | 0.00 | 0.00 | 0.00 |
| 09/04/26 8:51:34 AM | 32 | 0.0 | 4.0 | 65 | 70 | 68.6 | 68.8 | 29.927 | 7.41 | 1.1 | 376 | 0.00 | 0.00 | 0.00 | 0.00 |
| 09/04/26 8:52:23 AM | 31 | 0.0 | 4.0 | 65 | 69 | 68.7 | 68.9 | 29.926 | 7.41 | 1.1 | 376 | 0.00 | 0.00 | 0.00 | 0.00 |
| 09/04/26 8:53:18 AM | 31 | 0.0 | 4.0 | 65 | 69 | 68.7 | 68.9 | 29.926 | 7.41 | 1.1 | 376 | 0.00 | 0.00 | 0.00 | 0.00 |
| 09/04/26 8:54:27 AM | 29 | 2.0 | 4.0 | 65 | 69 | 68.7 | 69.1 | 29.930 | 7.41 | 1.2 | 383 | 0.00 | 0.00 | 0.00 | 0.00 |
| 09/04/26 8:55:19 AM | 31 | 2.0 | 4.0 | 65 | 69 | 68.7 | 69.2 | 29.927 | 7.41 | 1.2 | 385 | 0.00 | 0.00 | 0.00 | 0.00 |
| 09/04/26 8:56:29 AM | 31 | 2.0 | 4.0 | 65 | 69 | 68.7 | 69.4 | 29.927 | 7.41 | 1.2 | 385 | 0.00 | 0.00 | 0.00 | 0.00 |
| 09/04/26 8:57:21 AM | 28 | 1.0 | 4.0 | 65 | 69 | 68.7 | 69.4 | 29.928 | 7.41 | 1.2 | 385 | 0.00 | 0.00 | 0.00 | 0.00 |
| 09/04/26 8:58:30 AM | 30 | 2.0 | 4.0 | 65 | 68 | 68.7 | 69.5 | 29.926 | 7.41 | 1.3 | 388 | 0.00 | 0.00 | 0.00 | 0.00 |
| 09/04/26 8:59:22 AM | 32 | 3.0 | 4.0 | 65 | 68 | 68.8 | 69.6 | 29.925 | 7.41 | 1.3 | 388 | 0.00 | 0.00 | 0.00 | 0.00 |
| 09/04/26 9:00:35 AM | 29 | 2.0 | 4.0 | 65 | 68 | 68.8 | 69.6 | 29.926 | 7.41 | 1.3 | 390 | 0.00 | 0.00 | 0.00 | 0.00 |
| 09/04/26 9:01:24 AM | 31 | 2.0 | 4.0 | 65 | 68 | 68.8 | 69.7 | 29.924 | 7.41 | 1.3 | 390 | 0.00 | 0.00 | 0.00 | 0.00 |
| 09/04/26 9:02:33 AM | 31 | 5.0 | 5.0 | 65 | 68 | 68.8 | 69.8 | 29.925 | 7.41 | 1.3 | 390 | 0.00 | 0.00 | 0.00 | 0.00 |
| 09/04/26 9:03:28 AM | 32 | 3.0 | 5.0 | 65 | 68 | 68.8 | 69.9 | 29.925 | 7.41 | 1.3 | 390 | 0.00 | 0.00 | 0.00 | 0.00 |
| 09/04/26 9:04:17 AM | 31 | 2.0 | 6.0 | 65 | 68 | 68.8 | 70.0 | 29.924 | 7.41 | 1.3 | 390 | 0.00 | 0.00 | 0.00 | 0.00 |
| 09/04/26 9:05:30 AM | 34 | 4.0 | 6.0 | 65 | 67 | 68.9 | 70.0 | 29.923 | 7.41 | 1.4 | 392 | 0.00 | 0.00 | 0.00 | 0.00 |
| 09/04/26 9:06:19 AM | 31 | 5.0 | 6.0 | 65 | 67 | 68.9 | 70.1 | 29.924 | 7.41 | 1.4 | 392 | 0.00 | 0.00 | 0.00 | 0.00 |
| 09/04/26 9:07:31 AM | 32 | 4.0 | 6.0 | 65 | 67 | 68.9 | 70.1 | 29.923 | 7.41 | 1.4 | 394 | 0.00 | 0.00 | 0.00 | 0.00 |
| 09/04/26 9:08:23 AM | 31 | 2.0 | 6.0 | 65 | 67 | 68.9 | 70.1 | 29.925 | 7.41 | 1.4 | 394 | 0.00 | 0.00 | 0.00 | 0.00 |
| 09/04/26 9:09:36 AM | 29 | 1.0 | 6.0 | 65 | 66 | 68.9 | 70.1 | 29.925 | 7.41 | 1.4 | 394 | 0.00 | 0.00 | 0.00 | 0.00 |
| 09/04/26 9:10:28 AM | 31 | 0.0 | 6.0 | 65 | 66 | 69.0 | 70.1 | 29.924 | 7.41 | 1.4 | 396 | 0.00 | 0.00 | 0.00 | 0.00 |
| 09/04/26 9:11:20 AM | 34 | 3.0 | 6.0 | 65 | 66 | 69.0 | 70.2 | 29.924 | 7.41 | 1.5 | 394 | 0.00 | 0.00 | 0.00 | 0.00 |
| 09/04/26 9:12:29 AM | 31 | 2.0 | 6.0 | 65 | 66 | 69.0 | 70.2 | 29.925 | 7.41 | 1.5 | 396 | 0.00 | 0.00 | 0.00 | 0.00 |
| 09/04/26 9:13:18 AM | 30 | 2.0 | 6.0 | 65 | 66 | 69.0 | 70.3 | 29.926 | 7.41 | 1.5 | 396 | 0.00 | 0.00 | 0.00 | 0.00 |
| 09/04/26 9:14:31 AM | 31 | 0.0 | 6.0 | 65 | 66 | 69.0 | 70.5 | 29.925 | 7.41 | 1.6 | 396 | 0.00 | 0.00 | 0.00 | 0.00 |
| 09/04/26 9:15:26 AM | 32 | 2.0 | 6.0 | 65 | 66 | 69.1 | 70.5 | 29.926 | 7.41 | 1.6 | 396 | 0.00 | 0.00 | 0.00 | 0.00 |
| 09/04/26 9:16:36 AM | 28 | 2.0 | 6.0 | 65 | 65 | 69.1 | 70.7 | 29.927 | 7.41 | 1.6 | 396 | 0.00 | 0.00 | 0.00 | 0.00 |
| 09/04/26 9:17:21 AM | 30 | 4.0 | 6.0 | 65 | 65 | 69.2 | 70.8 | 29.926 | 7.41 | 1.6 | 394 | 0.00 | 0.00 | 0.00 | 0.00 |
| 09/04/26 9:18:34 AM | 31 | 2.0 | 6.0 | 65 | 64 | 69.2 | 70.9 | 29.926 | 7.41 | 1.6 | 396 | 0.00 | 0.00 | 0.00 | 0.00 |
| 09/04/26 9:19:26 AM | 30 | 1.0 | 6.0 | 65 | 64 | 69.2 | 71.0 | 29.926 | 7.41 | 1.6 | 396 | 0.00 | 0.00 | 0.00 | 0.00 |
| 09/04/26 9:20:18 AM | 32 | 1.0 | 6.0 | 65 | 64 | 69.2 | 71.0 | 29.926 | 7.41 | 1.6 | 396 | 0.00 | 0.00 | 0.00 | 0.00 |
| 09/04/26 9:21:30 AM | 31 | 3.0 | 6.0 | 65 | 64 | 69.2 | 71.0 | 29.928 | 7.41 | 1.7 | 396 | 0.00 | 0.00 | 0.00 | 0.00 |
| 09/04/26 9:22:19 AM | 30 | 2.0 | 6.0 | 65 | 64 | 69.2 | 71.1 | 29.926 | 7.41 | 1.7 | 394 | 0.00 | 0.00 | 0.00 | 0.00 |
| 09/04/26 9:23:32 AM | 32 | 4.0 | 6.0 | 65 | 64 | 69.2 | 71.2 | 29.928 | 7.41 | 1.7 | 392 | 0.00 | 0.00 | 0.00 | 0.00 |
| 09/04/26 9:24:24 AM | 31 | 4.0 | 6.0 | 65 | 64 | 69.3 | 71.2 | 29.928 | 7.41 | 1.7 | 392 | 0.00 | 0.00 | 0.00 | 0.00 |
| 09/04/26 9:25:34 AM | 30 | 3.0 | 6.0 | 65 | 64 | 69.3 | 71.3 | 29.926 | 7.41 | 1.8 | 392 | 0.00 | 0.00 | 0.00 | 0.00 |
| 09/04/26 9:26:25 AM | 30 | 1.0 | 6.0 | 65 | 63 | 69.4 | 71.3 | 29.928 | 7.41 | 1.8 | 396 | 0.00 | 0.00 | 0.00 | 0.00 |
| 09/04/26 9:27:20 AM | 32 | 1.0 | 6.0 | 65 | 63 | 69.3 | 71.4 | 29.927 | 7.41 | 1.8 | 396 | 0.00 | 0.00 | 0.00 | 0.00 |
| 09/04/26 9:28:27 AM | 28 | 0.0 | 6.0 | 65 | 63 | 69.3 | 71.4 | 29.928 | 7.41 | 1.8 | 396 | 0.00 | 0.00 | 0.00 | 0.00 |
| 09/04/26 9:29:19 AM | 26 | 2.0 | 6.0 | 65 | 63 | 69.4 | 71.4 | 29.927 | 7.41 | 1.9 | 397 | 0.00 | 0.00 | 0.00 | 0.00 |
| 09/04/26 9:30:31 AM | 31 | 3.0 | 6.0 | 65 | 63 | 69.4 | 71.6 | 29.929 | 7.41 | 1.9 | 397 | 0.00 | 0.00 | 0.00 | 0.00 |
| 09/04/26 9:31:23 AM | 28 | 1.0 | 6.0 | 65 | 62 | 69.4 | 71.6 | 29.932 | 7.41 | 1.9 | 397 | 0.00 | 0.00 | 0.00 | 0.00 |
| 09/04/26 9:32:33 AM | 29 | 1.0 | 6.0 | 65 | 62 | 69.4 | 71.6 | 29.931 | 7.41 | 1.9 | 403 | 0.00 | 0.00 | 0.00 | 0.00 |
| 09/04/26 9:33:22 AM | 28 | 2.0 | 6.0 | 65 | 62 | 69.4 | 71.7 | 29.932 | 7.41 | 2.0 | 406 | 0.00 | 0.00 | 0.00 | 0.00 |
| 09/04/26 9:34:35 AM | 24 | 4.0 | 6.0 | 65 | 62 | 69.4 | 71.8 | 29.930 | 7.41 | 2.0 | 406 | 0.00 | 0.00 | 0.00 | 0.00 |
| 09/04/26 9:35:26 AM | 32 | 4.0 | 6.0 | 65 | 62 | 69.4 | 71.8 | 29.933 | 7.41 | 2.0 | 411 | 0.00 | 0.00 | 0.00 | 0.00 |
| 09/04/26 9:36:18 AM | 27 | 2.0 | 6.0 | 65 | 61 | 69.4 | 71.8 | 29.932 | 7.41 | 2.0 | 411 | 0.00 | 0.00 | 0.00 | 0.00 |
| 09/04/26 9:37:31 AM | 29 | 3.0 | 6.0 | 65 | 61 | 69.5 | 71.7 | 29.933 | 7.41 | 2.0 | 420 | 0.00 | 0.00 | 0.00 | 0.00 |
| 09/04/26 9:38:20 AM | 31 | 4.0 | 6.0 | 65 | 62 | 69.5 | 71.8 | 29.932 | 7.41 | 2.0 | 422 | 0.00 | 0.00 | 0.00 | 0.00 |
| 09/04/26 9:39:32 AM | 32 | 1.0 | 6.0 | 65 | 62 | 69.6 | 71.9 | 29.933 | 7.41 | 2.0 | 429 | 0.00 | 0.00 | 0.00 | 0.00 |
| 09/04/26 9:40:24 AM | 31 | 4.0 | 6.0 | 65 | 61 | 69.5 | 71.9 | 29.937 | 7.41 | 2.1 | 429 | 0.00 | 0.00 | 0.00 | 0.00 |
| 09/04/26 9:41:37 AM | 32 | 4.0 | 6.0 | 65 | 61 | 69.6 | 71.9 | 29.935 | 7.41 | 2.1 | 438 | 0.00 | 0.00 | 0.00 | 0.00 |
| 09/04/26 9:42:29 AM | 29 | 3.0 | 6.0 | 65 | 61 | 69.6 | 71.9 | 29.935 | 7.41 | 2.1 | 445 | 0.00 | 0.00 | 0.00 | 0.00 |
| 09/04/26 9:43:21 AM | 30 | 3.0 | 6.0 | 65 | 61 | 69.6 | 71.9 | 29.938 | 7.41 | 2.1 | 452 | 0.00 | 0.00 | 0.00 | 0.00 |
| 09/04/26 9:44:27 AM | 28 | 4.0 | 6.0 | 65 | 62 | 69.7 | 71.9 | 29.936 | 7.41 | 2.2 | 452 | 0.00 | 0.00 | 0.00 | 0.00 |
| 09/04/26 9:45:43 AM | 28 | 4.0 | 6.0 | 65 | 62 | 69.6 | 72.0 | 29.939 | 7.41 | 2.2 | 459 | 0.00 | 0.00 | 0.00 | 0.00 |
| 09/04/26 9:46:32 AM | 32 | 3.0 | 6.0 | 65 | 62 | 69.7 | 72.1 | 29.938 | 7.41 | 2.2 | 466 | 0.00 | 0.00 | 0.00 | 0.00 |
| 09/04/26 9:47:27 AM | 31 | 3.0 | 6.0 | 65 | 62 | 69.7 | 72.1 | 29.937 | 7.41 | 2.2 | 473 | 0.00 | 0.00 | 0.00 | 0.00 |
| 09/04/26 9:48:15 AM | 28 | 2.0 | 6.0 | 65 | 62 | 69.7 | 72.1 | 29.937 | 7.41 | 2.2 | 476 | 0.00 | 0.00 | 0.00 | 0.00 |
| 09/04/26 9:49:25 AM | 28 | 1.0 | 6.0 | 65 | 60 | 69.7 | 72.2 | 29.942 | 7.41 | 2.3 | 483 | 0.00 | 0.00 | 0.00 | 0.00 |
| 09/04/26 9:50:17 AM | 31 | 2.0 | 7.0 | 65 | 60 | 69.8 | 72.2 | 29.940 | 7.41 | 2.3 | 494 | 0.00 | 0.00 | 0.00 | 0.00 |
| 09/04/26 9:51:30 AM | 31 | 3.0 | 7.0 | 65 | 61 | 69.8 | 72.3 | 29.943 | 7.41 | 2.3 | 494 | 0.00 | 0.00 | 0.00 | 0.00 |
| 09/04/26 9:52:22 AM | 29 | 5.0 | 7.0 | 65 | 61 | 69.8 | 72.4 | 29.939 | 7.41 | 2.3 | 494 | 0.00 | 0.00 | 0.00 | 0.00 |
| 09/04/26 9:53:31 AM | 31 | 6.0 | 8.0 | 65 | 61 | 69.9 | 72.5 | 29.941 | 7.41 | 2.3 | 519 | 0.00 | 0.00 | 0.00 | 0.00 |
| 09/04/26 9:54:23 AM | 32 | 4.0 | 8.0 | 65 | 61 | 69.9 | 72.6 | 29.944 | 7.41 | 2.4 | 519 | 0.00 | 0.00 | 0.00 | 0.00 |
| 09/04/26 9:55:33 AM | 28 | 3.0 | 8.0 | 65 | 61 | 69.9 | 72.6 | 29.939 | 7.41 | 2.4 | 536 | 0.00 | 0.00 | 0.00 | 0.00 |
| 09/04/26 9:56:25 AM | 30 | 5.0 | 8.0 | 65 | 61 | 69.9 | 72.6 | 29.940 | 7.41 | 2.4 | 540 | 0.00 | 0.00 | 0.00 | 0.00 |
| 09/04/26 9:57:17 AM | 30 | 2.0 | 8.0 | 65 | 61 | 69.9 | 72.6 | 29.943 | 7.41 | 2.4 | 540 | 0.00 | 0.00 | 0.00 | 0.00 |
| 09/04/26 9:58:29 AM | 31 | 2.0 | 8.0 | 65 | 61 | 70.0 | 72.7 | 29.943 | 7.41 | 2.5 | 548 | 0.00 | 0.00 | 0.00 | 0.00 |
| 09/04/26 9:59:21 AM | 30 | 5.0 | 8.0 | 65 | 61 | 70.0 | 72.8 | 29.943 | 7.41 | 2.5 | 555 | 0.00 | 0.00 | 0.00 | 0.00 |
| 09/04/26 10:00:52 AM | 31 | 3.0 | 8.0 | 65 | 61 | 70.0 | 72.9 | 29.943 | 7.41 | 2.5 | 563 | 0.00 | 0.00 | 0.00 | 0.00 |
| 09/04/26 10:01:20 AM | 31 | 3.0 | 8.0 | 65 | 60 | 70.0 | 72.8 | 29.943 | 7.41 | 2.5 | 570 | 0.00 | 0.00 | 0.00 | 0.00 |
| 09/04/26 10:02:33 AM | 28 | 3.0 | 8.0 | 65 | 59 | 70.1 | 72.8 | 29.943 | 7.41 | 2.6 | 577 | 0.00 | 0.00 | 0.00 | 0.00 |
| 09/04/26 10:03:24 AM | 31 | 4.0 | 8.0 | 65 | 59 | 70.1 | 72.8 | 29.943 | 7.41 | 2.6 | 584 | 0.00 | 0.00 | 0.00 | 0.00 |
| 09/04/26 10:04:16 AM | 29 | 3.0 | 8.0 | 65 | 59 | 70.1 | 72.7 | 29.943 | 7.41 | 2.6 | 584 | 0.00 | 0.00 | 0.00 | 0.00 |
| 09/04/26 10:05:29 AM | 32 | 2.0 | 8.0 | 65 | 59 | 70.1 | 72.7 | 29.940 | 7.41 | 2.6 | 592 | 0.00 | 0.00 | 0.00 | 0.00 |
| 09/04/26 10:06:18 AM | 32 | 2.0 | 8.0 | 65 | 59 | 70.2 | 72.6 | 29.945 | 7.41 | 2.6 | 598 | 0.00 | 0.00 | 0.00 | 0.00 |
| 09/04/26 10:07:27 AM | 30 | 2.0 | 8.0 | 65 | 59 | 70.2 | 72.6 | 29.943 | 7.41 | 2.6 | 598 | 0.00 | 0.00 | 0.00 | 0.00 |
| 09/04/26 10:08:19 AM | 29 | 1.0 | 8.0 | 65 | 59 | 70.2 | 72.6 | 29.942 | 7.41 | 2.7 | 601 | 0.00 | 0.00 | 0.00 | 0.00 |
| 09/04/26 10:09:32 AM | 30 | 1.0 | 8.0 | 65 | 59 | 70.2 | 72.6 | 29.943 | 7.41 | 2.7 | 613 | 0.00 | 0.00 | 0.00 | 0.00 |
| 09/04/26 10:10:24 AM | 32 | 2.0 | 8.0 | 65 | 58 | 70.2 | 72.7 | 29.942 | 7.41 | 2.7 | 613 | 0.00 | 0.00 | 0.00 | 0.00 |
| 09/04/26 10:11:31 AM | 28 | 0.0 | 8.0 | 65 | 57 | 70.2 | 72.7 | 29.944 | 7.41 | 2.8 | 626 | 0.00 | 0.00 | 0.00 | 0.00 |
| 09/04/26 10:12:22 AM | 30 | 1.0 | 8.0 | 65 | 57 | 70.2 | 72.7 | 29.942 | 7.41 | 2.8 | 626 | 0.00 | 0.00 | 0.00 | 0.00 |
| 09/04/26 10:13:35 AM | 30 | 1.0 | 8.0 | 65 | 57 | 70.2 | 72.9 | 29.945 | 7.41 | 2.9 | 626 | 0.00 | 0.00 | 0.00 | 0.00 |
| 09/04/26 10:14:27 AM | 32 | 2.0 | 8.0 | 65 | 56 | 70.2 | 72.9 | 29.944 | 7.41 | 2.9 | 626 | 0.00 | 0.00 | 0.00 | 0.00 |
| 09/04/26 10:15:19 AM | 32 | 3.0 | 8.0 | 65 | 56 | 70.3 | 73.1 | 29.941 | 7.41 | 2.9 | 626 | 0.00 | 0.00 | 0.00 | 0.00 |
| 09/04/26 10:16:26 AM | 32 | 3.0 | 8.0 | 65 | 57 | 70.3 | 73.2 | 29.944 | 7.41 | 2.9 | 626 | 0.00 | 0.00 | 0.00 | 0.00 |
| 09/04/26 10:17:20 AM | 34 | 3.0 | 8.0 | 65 | 56 | 70.3 | 73.4 | 29.944 | 7.41 | 2.9 | 642 | 0.00 | 0.00 | 0.00 | 0.00 |
| 09/04/26 10:18:33 AM | 32 | 1.0 | 8.0 | 65 | 55 | 70.3 | 73.6 | 29.943 | 7.41 | 3.0 | 642 | 0.00 | 0.00 | 0.00 | 0.00 |
| 09/04/26 10:19:25 AM | 28 | 1.0 | 8.0 | 65 | 55 | 70.4 | 73.8 | 29.945 | 7.41 | 3.0 | 642 | 0.00 | 0.00 | 0.00 | 0.00 |
| 09/04/26 10:20:17 AM | 30 | 1.0 | 8.0 | 65 | 54 | 70.4 | 74.0 | 29.945 | 7.41 | 3.0 | 654 | 0.00 | 0.00 | 0.00 | 0.00 |
| 09/04/26 10:21:30 AM | 31 | 3.0 | 8.0 | 65 | 54 | 70.4 | 74.3 | 29.944 | 7.41 | 3.1 | 659 | 0.00 | 0.00 | 0.00 | 0.00 |
| 09/04/26 10:22:15 AM | 32 | 3.0 | 8.0 | 65 | 54 | 70.5 | 74.4 | 29.944 | 7.41 | 3.1 | 652 | 0.00 | 0.00 | 0.00 | 0.00 |
| 09/04/26 10:23:28 AM | 32 | 2.0 | 8.0 | 65 | 54 | 70.4 | 74.4 | 29.942 | 7.41 | 3.1 | 654 | 0.00 | 0.00 | 0.00 | 0.00 |
| 09/04/26 10:24:20 AM | 31 | 1.0 | 8.0 | 65 | 54 | 70.4 | 74.3 | 29.946 | 7.41 | 3.1 | 654 | 0.00 | 0.00 | 0.00 | 0.00 |
| 09/04/26 10:25:33 AM | 31 | 1.0 | 8.0 | 65 | 55 | 70.5 | 74.4 | 29.944 | 7.41 | 3.2 | 661 | 0.00 | 0.00 | 0.00 | 0.00 |
| 09/04/26 10:26:25 AM | 29 | 0.0 | 8.0 | 65 | 55 | 70.5 | 74.4 | 29.947 | 7.41 | 3.2 | 661 | 0.00 | 0.00 | 0.00 | 0.00 |
| 09/04/26 10:27:31 AM | 28 | 5.0 | 8.0 | 65 | 55 | 70.5 | 74.6 | 29.945 | 7.41 | 3.2 | 675 | 0.00 | 0.00 | 0.00 | 0.00 |
| 09/04/26 10:28:26 AM | 31 | 5.0 | 8.0 | 65 | 55 | 70.5 | 74.9 | 29.942 | 7.41 | 3.2 | 675 | 0.00 | 0.00 | 0.00 | 0.00 |
| 09/04/26 10:29:15 AM | 30 | 3.0 | 8.0 | 65 | 55 | 70.6 | 75.1 | 29.944 | 7.41 | 3.2 | 679 | 0.00 | 0.00 | 0.00 | 0.00 |
| 09/04/26 10:30:52 AM | 32 | 3.0 | 8.0 | 65 | 55 | 70.5 | 75.3 | 29.944 | 7.41 | 3.2 | 680 | 0.00 | 0.00 | 0.00 | 0.00 |
| 09/04/26 10:31:23 AM | 29 | 4.0 | 8.0 | 65 | 53 | 70.6 | 75.4 | 29.944 | 7.41 | 3.3 | 680 | 0.00 | 0.00 | 0.00 | 0.00 |
| 09/04/26 10:32:36 AM | 32 | 2.0 | 8.0 | 65 | 52 | 70.6 | 75.5 | 29.942 | 7.41 | 3.3 | 680 | 0.00 | 0.00 | 0.00 | 0.00 |
| 09/04/26 10:33:21 AM | 28 | 4.0 | 8.0 | 65 | 52 | 70.6 | 75.5 | 29.942 | 7.41 | 3.3 | 689 | 0.00 | 0.00 | 0.00 | 0.00 |
| 09/04/26 10:34:34 AM | 30 | 3.0 | 8.0 | 65 | 52 | 70.7 | 75.5 | 29.942 | 7.41 | 3.4 | 689 | 0.00 | 0.00 | 0.00 | 0.00 |
| 09/04/26 10:35:26 AM | 28 | 2.0 | 8.0 | 65 | 52 | 70.7 | 75.5 | 29.942 | 7.41 | 3.4 | 696 | 0.00 | 0.00 | 0.00 | 0.00 |
| 09/04/26 10:36:18 AM | 31 | 3.0 | 8.0 | 65 | 52 | 70.7 | 75.4 | 29.941 | 7.41 | 3.4 | 696 | 0.00 | 0.00 | 0.00 | 0.00 |
| 09/04/26 10:37:31 AM | 28 | 3.0 | 8.0 | 65 | 50 | 70.7 | 75.4 | 29.943 | 7.41 | 3.4 | 700 | 0.00 | 0.00 | 0.00 | 0.00 |
| 09/04/26 10:38:19 AM | 28 | 4.0 | 8.0 | 65 | 47 | 70.7 | 75.4 | 29.944 | 7.41 | 3.4 | 700 | 0.00 | 0.00 | 0.00 | 0.00 |
| 09/04/26 10:39:29 AM | 31 | 2.0 | 8.0 | 65 | 48 | 70.8 | 75.6 | 29.946 | 7.41 | 3.5 | 700 | 0.00 | 0.00 | 0.00 | 0.00 |
| 09/04/26 10:40:21 AM | 31 | 3.0 | 8.0 | 65 | 49 | 70.8 | 75.7 | 29.944 | 7.41 | 3.5 | 708 | 0.00 | 0.00 | 0.00 | 0.00 |
| 09/04/26 10:41:37 AM | 30 | 1.0 | 8.0 | 65 | 49 | 70.7 | 75.9 | 29.942 | 7.41 | 3.5 | 708 | 0.00 | 0.00 | 0.00 | 0.00 |
| 09/04/26 10:42:26 AM | 32 | 0.0 | 8.0 | 65 | 50 | 70.8 | 76.0 | 29.943 | 7.41 | 3.6 | 710 | 0.00 | 0.00 | 0.00 | 0.00 |
| 09/04/26 10:43:20 AM | 28 | 1.0 | 8.0 | 65 | 50 | 70.8 | 76.1 | 29.943 | 7.41 | 3.6 | 712 | 0.00 | 0.00 | 0.00 | 0.00 |
| 09/04/26 10:44:27 AM | 28 | 0.0 | 8.0 | 65 | 49 | 70.8 | 76.2 | 29.944 | 7.41 | 3.6 | 712 | 0.00 | 0.00 | 0.00 | 0.00 |
| 09/04/26 10:45:22 AM | 31 | 3.0 | 8.0 | 65 | 49 | 70.8 | 76.2 | 29.942 | 7.41 | 3.6 | 712 | 0.00 | 0.00 | 0.00 | 0.00 |
| 09/04/26 10:46:29 AM | 30 | 2.0 | 8.0 | 65 | 49 | 70.9 | 76.4 | 29.943 | 7.41 | 3.7 | 717 | 0.00 | 0.00 | 0.00 | 0.00 |
| 09/04/26 10:47:24 AM | 28 | 1.0 | 8.0 | 65 | 49 | 70.9 | 76.4 | 29.942 | 7.41 | 3.7 | 717 | 0.00 | 0.00 | 0.00 | 0.00 |
| 09/04/26 10:48:34 AM | 32 | 1.0 | 8.0 | 65 | 49 | 70.9 | 76.5 | 29.944 | 7.41 | 3.7 | 717 | 0.00 | 0.00 | 0.00 | 0.00 |
| 09/04/26 10:49:22 AM | 34 | 2.0 | 8.0 | 65 | 50 | 70.9 | 76.5 | 29.942 | 7.41 | 3.7 | 717 | 0.00 | 0.00 | 0.00 | 0.00 |
| 09/04/26 10:50:32 AM | 28 | 6.0 | 8.0 | 65 | 50 | 71.0 | 76.8 | 29.943 | 7.41 | 3.7 | 717 | 0.00 | 0.00 | 0.00 | 0.00 |
| 09/04/26 10:51:27 AM | 30 | 4.0 | 8.0 | 65 | 49 | 71.0 | 76.9 | 29.943 | 7.41 | 3.7 | 722 | 0.00 | 0.00 | 0.00 | 0.00 |
| 09/04/26 10:52:19 AM | 32 | 2.0 | 8.0 | 65 | 49 | 71.0 | 77.0 | 29.944 | 7.41 | 3.7 | 722 | 0.00 | 0.00 | 0.00 | 0.00 |
| 09/04/26 10:53:32 AM | 31 | 1.0 | 8.0 | 65 | 49 | 71.0 | 77.1 | 29.944 | 7.41 | 3.8 | 729 | 0.00 | 0.00 | 0.00 | 0.00 |
| 09/04/26 10:54:17 AM | 30 | 1.0 | 8.0 | 65 | 49 | 71.1 | 77.2 | 29.943 | 7.41 | 3.8 | 729 | 0.00 | 0.00 | 0.00 | 0.00 |
| 09/04/26 10:55:30 AM | 28 | 0.0 | 8.0 | 65 | 49 | 71.0 | 77.3 | 29.942 | 7.41 | 3.8 | 728 | 0.00 | 0.00 | 0.00 | 0.00 |
| 09/04/26 10:56:22 AM | 32 | 1.0 | 8.0 | 65 | 50 | 71.1 | 77.3 | 29.944 | 7.41 | 3.8 | 733 | 0.00 | 0.00 | 0.00 | 0.00 |
| 09/04/26 10:57:35 AM | 29 | 3.0 | 8.0 | 65 | 50 | 71.1 | 77.4 | 29.944 | 7.41 | 3.9 | 733 | 0.00 | 0.00 | 0.00 | 0.00 |
| 09/04/26 10:58:27 AM | 31 | 5.0 | 8.0 | 65 | 49 | 71.1 | 77.4 | 29.944 | 7.41 | 3.9 | 733 | 0.00 | 0.00 | 0.00 | 0.00 |
| 09/04/26 10:59:19 AM | 28 | 4.0 | 8.0 | 65 | 48 | 71.2 | 77.1 | 29.944 | 7.41 | 3.9 | 744 | 0.00 | 0.00 | 0.00 | 0.00 |
| 09/04/26 11:00:28 AM | 32 | 2.0 | 8.0 | 65 | 47 | 71.2 | 76.9 | 29.942 | 7.41 | 3.9 | 744 | 0.00 | 0.00 | 0.00 | 0.00 |
| 09/04/26 11:01:20 AM | 32 | 0.0 | 8.0 | 65 | 48 | 71.2 | 76.8 | 29.943 | 7.41 | 4.0 | 744 | 0.00 | 0.00 | 0.00 | 0.00 |
| 09/04/26 11:02:33 AM | 30 | 3.0 | 8.0 | 65 | 48 | 71.3 | 76.8 | 29.944 | 7.41 | 4.0 | 751 | 0.00 | 0.00 | 0.00 | 0.00 |
| 09/04/26 11:03:25 AM | 30 | 3.0 | 8.0 | 65 | 47 | 71.3 | 76.9 | 29.941 | 7.41 | 4.0 | 751 | 0.00 | 0.00 | 0.00 | 0.00 |
| 09/04/26 11:04:35 AM | 29 | 3.0 | 8.0 | 65 | 46 | 71.3 | 77.0 | 29.942 | 7.41 | 4.0 | 754 | 0.00 | 0.00 | 0.00 | 0.00 |
| 09/04/26 11:05:23 AM | 32 | 3.0 | 8.0 | 65 | 46 | 71.3 | 77.1 | 29.943 | 7.41 | 4.1 | 758 | 0.00 | 0.00 | 0.00 | 0.00 |
| 09/04/26 11:06:16 AM | 31 | 5.0 | 8.0 | 65 | 46 | 71.3 | 77.3 | 29.943 | 7.41 | 4.1 | 758 | 0.00 | 0.00 | 0.00 | 0.00 |
| 09/04/26 11:07:28 AM | 32 | 8.0 | 9.0 | 65 | 45 | 71.4 | 77.5 | 29.943 | 7.41 | 4.1 | 758 | 0.00 | 0.00 | 0.00 | 0.00 |
| 09/04/26 11:08:20 AM | 28 | 5.0 | 9.0 | 65 | 43 | 71.4 | 77.6 | 29.943 | 7.41 | 4.1 | 765 | 0.00 | 0.00 | 0.00 | 0.00 |
| 09/04/26 11:09:33 AM | 30 | 0.0 | 9.0 | 65 | 42 | 71.4 | 77.8 | 29.939 | 7.41 | 4.1 | 770 | 0.00 | 0.00 | 0.00 | 0.00 |
| 09/04/26 11:10:19 AM | 31 | 1.0 | 9.0 | 65 | 42 | 71.5 | 77.9 | 29.942 | 7.41 | 4.1 | 770 | 0.00 | 0.00 | 0.00 | 0.00 |
| 09/04/26 11:11:32 AM | 31 | 0.0 | 9.0 | 65 | 41 | 71.5 | 78.0 | 29.941 | 7.41 | 4.2 | 772 | 0.00 | 0.00 | 0.00 | 0.00 |
| 09/04/26 11:12:24 AM | 32 | 1.0 | 9.0 | 65 | 41 | 71.4 | 78.2 | 29.940 | 7.41 | 4.2 | 773 | 0.00 | 0.00 | 0.00 | 0.00 |
| 09/04/26 11:13:36 AM | 30 | 4.0 | 9.0 | 65 | 41 | 71.5 | 78.3 | 29.940 | 7.41 | 4.3 | 773 | 0.00 | 0.00 | 0.00 | 0.00 |
| 09/04/26 11:14:28 AM | 23 | 5.0 | 9.0 | 65 | 39 | 71.5 | 78.4 | 29.940 | 7.41 | 4.3 | 786 | 0.00 | 0.00 | 0.00 | 0.00 |
| 09/04/26 11:15:20 AM | 30 | 9.0 | 11.0 | 65 | 38 | 71.5 | 78.6 | 29.942 | 7.41 | 4.3 | 788 | 0.00 | 0.00 | 0.00 | 0.00 |
| 09/04/26 11:16:27 AM | 31 | 5.0 | 11.0 | 65 | 38 | 71.5 | 78.7 | 29.940 | 7.41 | 4.3 | 788 | 0.00 | 0.00 | 0.00 | 0.00 |
| 09/04/26 11:17:19 AM | 32 | 5.0 | 11.0 | 65 | 38 | 71.5 | 78.8 | 29.942 | 7.41 | 4.3 | 788 | 0.00 | 0.00 | 0.00 | 0.00 |
| 09/04/26 11:18:31 AM | 28 | 6.0 | 11.0 | 65 | 41 | 71.6 | 78.8 | 29.939 | 7.41 | 4.3 | 788 | 0.00 | 0.00 | 0.00 | 0.00 |
| 09/04/26 11:19:20 AM | 30 | 4.0 | 11.0 | 65 | 39 | 71.6 | 78.9 | 29.942 | 7.41 | 4.3 | 788 | 0.00 | 0.00 | 0.00 | 0.00 |
| 09/04/26 11:20:33 AM | 29 | 2.0 | 11.0 | 65 | 37 | 71.6 | 78.9 | 29.940 | 7.41 | 4.4 | 788 | 0.00 | 0.00 | 0.00 | 0.00 |
| 09/04/26 11:21:22 AM | 32 | 2.0 | 11.0 | 65 | 36 | 71.6 | 79.0 | 29.942 | 7.41 | 4.4 | 789 | 0.00 | 0.00 | 0.00 | 0.00 |
| 09/04/26 11:22:35 AM | 31 | 2.0 | 11.0 | 65 | 38 | 71.7 | 79.1 | 29.941 | 7.41 | 4.4 | 793 | 0.00 | 0.00 | 0.00 | 0.00 |
| 09/04/26 11:23:27 AM | 31 | 1.0 | 11.0 | 65 | 38 | 71.7 | 79.1 | 29.942 | 7.41 | 4.4 | 793 | 0.00 | 0.00 | 0.00 | 0.00 |
| 09/04/26 11:24:18 AM | 29 | 3.0 | 11.0 | 65 | 35 | 71.8 | 79.2 | 29.941 | 7.41 | 4.4 | 791 | 0.00 | 0.00 | 0.00 | 0.00 |
| 09/04/26 11:25:31 AM | 32 | 2.0 | 11.0 | 65 | 34 | 71.8 | 79.1 | 29.943 | 7.41 | 4.4 | 796 | 0.00 | 0.00 | 0.00 | 0.00 |
| 09/04/26 11:26:17 AM | 29 | 1.0 | 11.0 | 65 | 35 | 71.8 | 79.1 | 29.940 | 7.41 | 4.4 | 796 | 0.00 | 0.00 | 0.00 | 0.00 |
| 09/04/26 11:27:30 AM | 31 | 2.0 | 11.0 | 65 | 36 | 71.8 | 79.3 | 29.940 | 7.41 | 4.5 | 796 | 0.00 | 0.00 | 0.00 | 0.00 |
| 09/04/26 11:28:22 AM | 31 | 2.0 | 11.0 | 65 | 36 | 71.8 | 79.3 | 29.942 | 7.41 | 4.5 | 802 | 0.00 | 0.00 | 0.00 | 0.00 |
| 09/04/26 11:29:35 AM | 30 | 6.0 | 11.0 | 65 | 36 | 71.8 | 79.5 | 29.941 | 7.41 | 4.5 | 803 | 0.00 | 0.00 | 0.00 | 0.00 |
| 09/04/26 11:30:51 AM | 28 | 4.0 | 11.0 | 65 | 36 | 71.9 | 79.7 | 29.942 | 7.41 | 4.5 | 809 | 0.00 | 0.00 | 0.00 | 0.00 |
| 09/04/26 11:31:21 AM | 31 | 4.0 | 11.0 | 65 | 36 | 71.9 | 79.9 | 29.941 | 7.41 | 4.5 | 809 | 0.00 | 0.00 | 0.00 | 0.00 |
| 09/04/26 11:32:28 AM | 31 | 5.0 | 11.0 | 65 | 36 | 71.9 | 80.0 | 29.942 | 7.41 | 4.6 | 809 | 0.00 | 0.00 | 0.00 | 0.00 |
| 09/04/26 11:33:20 AM | 32 | 1.0 | 11.0 | 65 | 33 | 71.9 | 79.9 | 29.943 | 7.41 | 4.6 | 809 | 0.00 | 0.00 | 0.00 | 0.00 |
| 09/04/26 11:34:30 AM | 28 | 3.0 | 11.0 | 65 | 34 | 71.9 | 79.9 | 29.942 | 7.41 | 4.6 | 809 | 0.00 | 0.00 | 0.00 | 0.00 |
| 09/04/26 11:35:21 AM | 31 | 3.0 | 11.0 | 65 | 34 | 72.0 | 79.9 | 29.945 | 7.41 | 4.6 | 821 | 0.00 | 0.00 | 0.00 | 0.00 |
| 09/04/26 11:36:34 AM | 26 | 5.0 | 11.0 | 65 | 34 | 72.0 | 79.8 | 29.944 | 7.41 | 4.6 | 824 | 0.00 | 0.00 | 0.00 | 0.00 |
| 09/04/26 11:37:23 AM | 32 | 3.0 | 11.0 | 65 | 35 | 72.0 | 79.8 | 29.943 | 7.41 | 4.7 | 824 | 0.00 | 0.00 | 0.00 | 0.00 |
| 09/04/26 11:38:33 AM | 34 | 3.0 | 11.0 | 65 | 35 | 72.0 | 79.8 | 29.944 | 7.41 | 4.7 | 824 | 0.00 | 0.00 | 0.00 | 0.00 |
| 09/04/26 11:39:25 AM | 30 | 1.0 | 11.0 | 65 | 35 | 72.1 | 79.8 | 29.941 | 7.41 | 4.7 | 824 | 0.00 | 0.00 | 0.00 | 0.00 |
| 09/04/26 11:40:35 AM | 28 | 2.0 | 11.0 | 65 | 35 | 72.0 | 79.8 | 29.943 | 7.41 | 4.7 | 824 | 0.00 | 0.00 | 0.00 | 0.00 |
| 09/04/26 11:41:30 AM | 31 | 3.0 | 11.0 | 65 | 36 | 72.1 | 79.9 | 29.945 | 7.41 | 4.7 | 824 | 0.00 | 0.00 | 0.00 | 0.00 |
| 09/04/26 11:42:21 AM | 32 | 2.0 | 11.0 | 65 | 38 | 72.1 | 79.8 | 29.945 | 7.41 | 4.7 | 824 | 0.00 | 0.00 | 0.00 | 0.00 |
| 09/04/26 11:43:28 AM | 32 | 4.0 | 11.0 | 65 | 37 | 72.1 | 79.8 | 29.944 | 7.41 | 4.8 | 828 | 0.00 | 0.00 | 0.00 | 0.00 |
| 09/04/26 11:44:20 AM | 32 | 5.0 | 11.0 | 65 | 35 | 72.2 | 79.8 | 29.944 | 7.41 | 4.8 | 828 | 0.00 | 0.00 | 0.00 | 0.00 |
| 09/04/26 11:45:33 AM | 31 | 4.0 | 11.0 | 65 | 35 | 72.2 | 80.0 | 29.942 | 7.41 | 4.8 | 828 | 0.00 | 0.00 | 0.00 | 0.00 |
| 09/04/26 11:46:25 AM | 31 | 4.0 | 11.0 | 65 | 35 | 72.2 | 80.2 | 29.941 | 7.41 | 4.8 | 828 | 0.00 | 0.00 | 0.00 | 0.00 |
| 09/04/26 11:47:38 AM | 30 | 4.0 | 11.0 | 65 | 31 | 72.2 | 80.3 | 29.941 | 7.41 | 4.8 | 838 | 0.00 | 0.00 | 0.00 | 0.00 |
| 09/04/26 11:48:23 AM | 32 | 2.0 | 11.0 | 65 | 33 | 72.3 | 80.5 | 29.945 | 7.41 | 4.8 | 838 | 0.00 | 0.00 | 0.00 | 0.00 |
| 09/04/26 11:49:18 AM | 31 | 3.0 | 11.0 | 65 | 36 | 72.3 | 80.6 | 29.941 | 7.41 | 4.8 | 838 | 0.00 | 0.00 | 0.00 | 0.00 |
| 09/04/26 11:50:28 AM | 32 | 3.0 | 11.0 | 65 | 37 | 72.2 | 80.7 | 29.941 | 7.41 | 4.8 | 835 | 0.00 | 0.00 | 0.00 | 0.00 |
| 09/04/26 11:51:20 AM | 31 | 2.0 | 11.0 | 65 | 37 | 72.3 | 80.8 | 29.940 | 7.41 | 4.8 | 835 | 0.00 | 0.00 | 0.00 | 0.00 |
| 09/04/26 11:52:33 AM | 29 | 3.0 | 11.0 | 65 | 37 | 72.4 | 80.9 | 29.941 | 7.41 | 4.8 | 837 | 0.00 | 0.00 | 0.00 | 0.00 |
| 09/04/26 11:53:22 AM | 31 | 2.0 | 11.0 | 65 | 36 | 72.3 | 81.0 | 29.940 | 7.41 | 4.9 | 837 | 0.00 | 0.00 | 0.00 | 0.00 |
| 09/04/26 11:54:35 AM | 31 | 3.0 | 11.0 | 65 | 35 | 72.3 | 81.1 | 29.940 | 7.41 | 4.9 | 837 | 0.00 | 0.00 | 0.00 | 0.00 |
| 09/04/26 11:55:26 AM | 32 | 0.0 | 11.0 | 65 | 35 | 72.3 | 81.2 | 29.936 | 7.41 | 4.9 | 840 | 0.00 | 0.00 | 0.00 | 0.00 |
| 09/04/26 11:56:18 AM | 30 | 4.0 | 11.0 | 65 | 35 | 72.4 | 81.3 | 29.939 | 7.41 | 4.9 | 842 | 0.00 | 0.00 | 0.00 | 0.00 |
| 09/04/26 11:57:28 AM | 28 | 6.0 | 11.0 | 65 | 34 | 72.4 | 81.2 | 29.937 | 7.41 | 4.9 | 844 | 0.00 | 0.00 | 0.00 | 0.00 |
| 09/04/26 11:58:23 AM | 30 | 4.0 | 11.0 | 65 | 34 | 72.4 | 81.2 | 29.938 | 7.41 | 4.9 | 844 | 0.00 | 0.00 | 0.00 | 0.00 |
| 09/04/26 11:59:30 AM | 30 | 3.0 | 11.0 | 65 | 37 | 72.4 | 81.2 | 29.938 | 7.41 | 5.0 | 847 | 0.00 | 0.00 | 0.00 | 0.00 |
| 09/04/26 12:00:43 PM | 30 | 6.0 | 11.0 | 65 | 35 | 72.4 | 81.2 | 29.936 | 7.41 | 5.0 | 849 | 0.00 | 0.00 | 0.00 | 0.00 |
| 09/04/26 12:01:34 PM | 28 | 5.0 | 11.0 | 65 | 35 | 72.5 | 81.2 | 29.938 | 7.41 | 5.0 | 849 | 0.00 | 0.00 | 0.00 | 0.00 |
| 09/04/26 12:02:26 PM | 28 | 2.0 | 11.0 | 65 | 33 | 72.5 | 81.3 | 29.938 | 7.41 | 5.0 | 849 | 0.00 | 0.00 | 0.00 | 0.00 |
| 09/04/26 12:03:18 PM | 31 | 3.0 | 11.0 | 65 | 33 | 72.5 | 81.6 | 29.936 | 7.41 | 5.0 | 849 | 0.00 | 0.00 | 0.00 | 0.00 |
| 09/04/26 12:04:25 PM | 30 | 2.0 | 11.0 | 65 | 33 | 72.5 | 81.6 | 29.936 | 7.41 | 5.0 | 849 | 0.00 | 0.00 | 0.00 | 0.00 |
| 09/04/26 12:05:20 PM | 31 | 5.0 | 11.0 | 65 | 32 | 72.5 | 81.6 | 29.937 | 7.41 | 5.0 | 849 | 0.00 | 0.00 | 0.00 | 0.00 |
| 09/04/26 12:06:30 PM | 31 | 4.0 | 11.0 | 65 | 33 | 72.6 | 81.6 | 29.936 | 7.41 | 5.0 | 856 | 0.00 | 0.00 | 0.00 | 0.00 |
| 09/04/26 12:07:22 PM | 32 | 8.0 | 11.0 | 65 | 31 | 72.6 | 81.6 | 29.935 | 7.41 | 5.0 | 856 | 0.00 | 0.00 | 0.00 | 0.00 |
| 09/04/26 12:08:35 PM | 31 | 5.0 | 11.0 | 65 | 31 | 72.6 | 81.6 | 29.936 | 7.41 | 5.0 | 860 | 0.00 | 0.00 | 0.00 | 0.00 |
| 09/04/26 12:09:26 PM | 29 | 6.0 | 11.0 | 65 | 32 | 72.6 | 81.8 | 29.935 | 7.41 | 5.1 | 860 | 0.00 | 0.00 | 0.00 | 0.00 |
| 09/04/26 12:10:33 PM | 31 | 3.0 | 11.0 | 65 | 31 | 72.6 | 81.8 | 29.935 | 7.41 | 5.1 | 861 | 0.00 | 0.00 | 0.00 | 0.00 |
| 09/04/26 12:11:25 PM | 31 | 3.0 | 11.0 | 65 | 31 | 72.7 | 81.9 | 29.935 | 7.41 | 5.1 | 861 | 0.00 | 0.00 | 0.00 | 0.00 |
| 09/04/26 12:12:17 PM | 32 | 1.0 | 11.0 | 65 | 31 | 72.7 | 81.9 | 29.936 | 7.41 | 5.1 | 863 | 0.00 | 0.00 | 0.00 | 0.00 |
| 09/04/26 12:13:30 PM | 30 | 2.0 | 11.0 | 65 | 32 | 72.7 | 81.9 | 29.933 | 7.41 | 5.1 | 863 | 0.00 | 0.00 | 0.00 | 0.00 |
| 09/04/26 12:14:22 PM | 32 | 3.0 | 11.0 | 65 | 33 | 72.8 | 81.9 | 29.933 | 7.41 | 5.1 | 863 | 0.00 | 0.00 | 0.00 | 0.00 |
| 09/04/26 12:15:32 PM | 30 | 1.0 | 11.0 | 65 | 33 | 72.7 | 81.8 | 29.933 | 7.41 | 5.1 | 863 | 0.00 | 0.00 | 0.00 | 0.00 |
| 09/04/26 12:16:23 PM | 31 | 1.0 | 11.0 | 65 | 33 | 72.7 | 81.7 | 29.933 | 7.41 | 5.1 | 863 | 0.00 | 0.00 | 0.00 | 0.00 |
| 09/04/26 12:17:36 PM | 30 | 6.0 | 11.0 | 65 | 33 | 72.7 | 81.7 | 29.932 | 7.41 | 5.1 | 867 | 0.00 | 0.00 | 0.00 | 0.00 |
| 09/04/26 12:18:25 PM | 28 | 6.0 | 11.0 | 65 | 33 | 72.8 | 81.8 | 29.929 | 7.41 | 5.2 | 865 | 0.00 | 0.00 | 0.00 | 0.00 |
| 09/04/26 12:19:17 PM | 30 | 4.0 | 11.0 | 65 | 33 | 72.8 | 81.8 | 29.931 | 7.41 | 5.2 | 868 | 0.00 | 0.00 | 0.00 | 0.00 |
| 09/04/26 12:20:24 PM | 32 | 5.0 | 11.0 | 65 | 33 | 72.8 | 82.0 | 29.928 | 7.41 | 5.2 | 868 | 0.00 | 0.00 | 0.00 | 0.00 |
| 09/04/26 12:21:16 PM | 29 | 3.0 | 11.0 | 65 | 33 | 72.8 | 82.1 | 29.930 | 7.41 | 5.2 | 868 | 0.00 | 0.00 | 0.00 | 0.00 |
| 09/04/26 12:22:29 PM | 28 | 6.0 | 11.0 | 65 | 33 | 72.8 | 82.2 | 29.929 | 7.41 | 5.2 | 868 | 0.00 | 0.00 | 0.00 | 0.00 |
| 09/04/26 12:23:21 PM | 32 | 8.0 | 11.0 | 65 | 34 | 72.8 | 82.3 | 29.930 | 7.41 | 5.2 | 865 | 0.00 | 0.00 | 0.00 | 0.00 |
| 09/04/26 12:24:34 PM | 31 | 5.0 | 11.0 | 65 | 34 | 72.9 | 82.3 | 29.929 | 7.41 | 5.2 | 867 | 0.00 | 0.00 | 0.00 | 0.00 |
| 09/04/26 12:25:26 PM | 28 | 4.0 | 11.0 | 65 | 33 | 72.9 | 82.3 | 29.927 | 7.41 | 5.2 | 868 | 0.00 | 0.00 | 0.00 | 0.00 |
| 09/04/26 12:26:33 PM | 32 | 1.0 | 11.0 | 65 | 32 | 72.9 | 82.3 | 29.927 | 7.41 | 5.2 | 867 | 0.00 | 0.00 | 0.00 | 0.00 |
| 09/04/26 12:27:27 PM | 28 | 4.0 | 11.0 | 65 | 32 | 72.9 | 82.2 | 29.926 | 7.41 | 5.2 | 867 | 0.00 | 0.00 | 0.00 | 0.00 |
| 09/04/26 12:28:19 PM | 32 | 4.0 | 11.0 | 65 | 31 | 72.9 | 82.1 | 29.923 | 7.41 | 5.2 | 870 | 0.00 | 0.00 | 0.00 | 0.00 |
| 09/04/26 12:29:32 PM | 31 | 3.0 | 11.0 | 65 | 32 | 72.9 | 81.9 | 29.925 | 7.41 | 5.2 | 872 | 0.00 | 0.00 | 0.00 | 0.00 |
| 09/04/26 12:30:24 PM | 30 | 1.0 | 11.0 | 65 | 32 | 72.9 | 81.8 | 29.925 | 7.41 | 5.2 | 872 | 0.00 | 0.00 | 0.00 | 0.00 |
| 09/04/26 12:31:31 PM | 32 | 11.0 | 11.0 | 65 | 32 | 73.0 | 81.7 | 29.926 | 7.41 | 5.2 | 872 | 0.00 | 0.00 | 0.00 | 0.00 |
| 09/04/26 12:32:23 PM | 32 | 4.0 | 11.0 | 65 | 32 | 73.0 | 81.8 | 29.922 | 7.41 | 5.2 | 872 | 0.00 | 0.00 | 0.00 | 0.00 |
| 09/04/26 12:33:36 PM | 31 | 5.0 | 11.0 | 65 | 33 | 73.0 | 81.7 | 29.922 | 7.41 | 5.2 | 872 | 0.00 | 0.00 | 0.00 | 0.00 |
| 09/04/26 12:34:28 PM | 32 | 5.0 | 11.0 | 65 | 33 | 73.0 | 81.6 | 29.923 | 7.41 | 5.2 | 872 | 0.00 | 0.00 | 0.00 | 0.00 |
| 09/04/26 12:35:19 PM | 31 | 5.0 | 11.0 | 65 | 33 | 73.0 | 81.6 | 29.921 | 7.41 | 5.2 | 877 | 0.00 | 0.00 | 0.00 | 0.00 |
| 09/04/26 12:36:26 PM | 30 | 2.0 | 11.0 | 65 | 33 | 73.1 | 81.6 | 29.922 | 7.41 | 5.2 | 877 | 0.00 | 0.00 | 0.00 | 0.00 |
| 09/04/26 12:37:18 PM | 32 | 2.0 | 11.0 | 65 | 35 | 73.0 | 81.7 | 29.920 | 7.41 | 5.2 | 877 | 0.00 | 0.00 | 0.00 | 0.00 |
| 09/04/26 12:38:31 PM | 32 | 3.0 | 11.0 | 65 | 35 | 73.0 | 82.1 | 29.919 | 7.41 | 5.2 | 875 | 0.00 | 0.00 | 0.00 | 0.00 |
| 09/04/26 12:39:23 PM | 29 | 2.0 | 11.0 | 65 | 35 | 73.0 | 82.3 | 29.920 | 7.41 | 5.2 | 875 | 0.00 | 0.00 | 0.00 | 0.00 |
| 09/04/26 12:40:36 PM | 30 | 2.0 | 11.0 | 65 | 35 | 73.1 | 82.6 | 29.918 | 7.41 | 5.2 | 872 | 0.00 | 0.00 | 0.00 | 0.00 |
| 09/04/26 12:41:28 PM | 30 | 5.0 | 11.0 | 65 | 35 | 73.0 | 82.9 | 29.917 | 7.41 | 5.2 | 875 | 0.00 | 0.00 | 0.00 | 0.00 |
| 09/04/26 12:42:35 PM | 30 | 8.0 | 11.0 | 65 | 35 | 73.0 | 83.0 | 29.916 | 7.41 | 5.2 | 875 | 0.00 | 0.00 | 0.00 | 0.00 |
| 09/04/26 12:43:26 PM | 30 | 2.0 | 11.0 | 65 | 35 | 73.1 | 82.8 | 29.918 | 7.41 | 5.2 | 872 | 0.00 | 0.00 | 0.00 | 0.00 |
| 09/04/26 12:44:18 PM | 31 | 5.0 | 11.0 | 65 | 35 | 73.1 | 82.6 | 29.916 | 7.41 | 5.2 | 872 | 0.00 | 0.00 | 0.00 | 0.00 |
| 09/04/26 12:45:52 PM | 34 | 2.0 | 11.0 | 65 | 34 | 73.1 | 82.2 | 29.916 | 7.41 | 5.2 | 872 | 0.00 | 0.00 | 0.00 | 0.00 |
| 09/04/26 12:46:23 PM | 31 | 9.0 | 11.0 | 65 | 33 | 73.1 | 82.1 | 29.916 | 7.41 | 5.2 | 872 | 0.00 | 0.00 | 0.00 | 0.00 |
| 09/04/26 12:47:30 PM | 31 | 6.0 | 11.0 | 65 | 34 | 73.1 | 81.5 | 29.916 | 7.41 | 5.2 | 872 | 0.00 | 0.00 | 0.00 | 0.00 |
| 09/04/26 12:48:22 PM | 30 | 3.0 | 11.0 | 65 | 34 | 73.1 | 81.3 | 29.916 | 7.41 | 5.2 | 875 | 0.00 | 0.00 | 0.00 | 0.00 |
| 09/04/26 12:49:35 PM | 28 | 8.0 | 11.0 | 65 | 34 | 73.1 | 81.1 | 29.912 | 7.41 | 5.2 | 875 | 0.00 | 0.00 | 0.00 | 0.00 |
| 09/04/26 12:50:30 PM | 32 | 2.0 | 11.0 | 65 | 35 | 73.2 | 80.8 | 29.914 | 7.41 | 5.2 | 877 | 0.00 | 0.00 | 0.00 | 0.00 |
| 09/04/26 12:51:18 PM | 34 | 1.0 | 11.0 | 65 | 34 | 73.2 | 80.7 | 29.911 | 7.41 | 5.2 | 875 | 0.00 | 0.00 | 0.00 | 0.00 |
| 09/04/26 12:52:31 PM | 31 | 4.0 | 11.0 | 65 | 35 | 73.2 | 80.6 | 29.912 | 7.41 | 5.2 | 875 | 0.00 | 0.00 | 0.00 | 0.00 |
| 09/04/26 12:53:20 PM | 30 | 3.0 | 11.0 | 65 | 34 | 73.2 | 80.5 | 29.910 | 7.41 | 5.3 | 875 | 0.00 | 0.00 | 0.00 | 0.00 |
| 09/04/26 12:54:33 PM | 28 | 4.0 | 11.0 | 65 | 35 | 73.2 | 80.6 | 29.914 | 7.41 | 5.2 | 872 | 0.00 | 0.00 | 0.00 | 0.00 |
| 09/04/26 12:55:25 PM | 30 | 2.0 | 11.0 | 65 | 34 | 73.3 | 80.6 | 29.913 | 7.41 | 5.3 | 872 | 0.00 | 0.00 | 0.00 | 0.00 |
| 09/04/26 12:56:20 PM | 32 | 2.0 | 11.0 | 65 | 35 | 73.3 | 80.6 | 29.912 | 7.41 | 5.3 | 877 | 0.00 | 0.00 | 0.00 | 0.00 |
| 09/04/26 12:57:30 PM | 30 | 2.0 | 11.0 | 65 | 34 | 73.3 | 80.6 | 29.912 | 7.41 | 5.3 | 877 | 0.00 | 0.00 | 0.00 | 0.00 |
| 09/04/26 12:58:19 PM | 31 | 2.0 | 11.0 | 65 | 34 | 73.3 | 80.7 | 29.909 | 7.41 | 5.3 | 877 | 0.00 | 0.00 | 0.00 | 0.00 |
| 09/04/26 12:59:29 PM | 32 | 4.0 | 11.0 | 65 | 34 | 73.3 | 80.9 | 29.909 | 7.41 | 5.3 | 877 | 0.00 | 0.00 | 0.00 | 0.00 |
| 09/04/26 1:00:45 PM | 29 | 9.0 | 11.0 | 65 | 34 | 73.4 | 81.1 | 29.911 | 7.41 | 5.3 | 882 | 0.00 | 0.00 | 0.00 | 0.00 |
| 09/04/26 1:01:33 PM | 31 | 8.0 | 11.0 | 65 | 35 | 73.4 | 81.6 | 29.911 | 7.41 | 5.3 | 882 | 0.00 | 0.00 | 0.00 | 0.00 |
| 09/04/26 1:02:25 PM | 32 | 3.0 | 11.0 | 65 | 35 | 73.4 | 81.8 | 29.909 | 7.41 | 5.3 | 882 | 0.00 | 0.00 | 0.00 | 0.00 |
| 09/04/26 1:03:17 PM | 30 | 4.0 | 11.0 | 65 | 33 | 73.4 | 82.0 | 29.910 | 7.41 | 5.2 | 882 | 0.00 | 0.00 | 0.00 | 0.00 |
| 09/04/26 1:04:27 PM | 29 | 5.0 | 11.0 | 65 | 32 | 73.4 | 82.1 | 29.909 | 7.41 | 5.2 | 872 | 0.00 | 0.00 | 0.00 | 0.00 |
| 09/04/26 1:05:19 PM | 28 | 4.0 | 11.0 | 65 | 32 | 73.5 | 82.2 | 29.910 | 7.41 | 5.2 | 872 | 0.00 | 0.00 | 0.00 | 0.00 |
| 09/04/26 1:06:29 PM | 31 | 8.0 | 11.0 | 65 | 31 | 73.5 | 82.2 | 29.911 | 7.41 | 5.2 | 875 | 0.00 | 0.00 | 0.00 | 0.00 |
| 09/04/26 1:07:21 PM | 31 | 5.0 | 11.0 | 65 | 32 | 73.5 | 82.1 | 29.911 | 7.41 | 5.2 | 874 | 0.00 | 0.00 | 0.00 | 0.00 |
| 09/04/26 1:08:34 PM | 31 | 8.0 | 12.0 | 65 | 35 | 73.5 | 82.2 | 29.910 | 7.41 | 5.2 | 872 | 0.00 | 0.00 | 0.00 | 0.00 |
| 09/04/26 1:09:23 PM | 32 | 4.0 | 12.0 | 65 | 33 | 73.5 | 82.5 | 29.911 | 7.41 | 5.2 | 872 | 0.00 | 0.00 | 0.00 | 0.00 |
| 09/04/26 1:10:32 PM | 28 | 4.0 | 12.0 | 65 | 33 | 73.6 | 82.6 | 29.908 | 7.41 | 5.2 | 872 | 0.00 | 0.00 | 0.00 | 0.00 |
| 09/04/26 1:11:24 PM | 32 | 3.0 | 12.0 | 65 | 33 | 73.6 | 82.7 | 29.910 | 7.41 | 5.2 | 872 | 0.00 | 0.00 | 0.00 | 0.00 |
| 09/04/26 1:12:16 PM | 31 | 4.0 | 12.0 | 65 | 33 | 73.5 | 82.7 | 29.909 | 7.41 | 5.2 | 867 | 0.00 | 0.00 | 0.00 | 0.00 |
| 09/04/26 1:13:29 PM | 32 | 3.0 | 12.0 | 65 | 33 | 73.6 | 82.7 | 29.906 | 7.41 | 5.1 | 867 | 0.00 | 0.00 | 0.00 | 0.00 |
| 09/04/26 1:14:21 PM | 31 | 5.0 | 12.0 | 65 | 33 | 73.6 | 82.7 | 29.906 | 7.41 | 5.2 | 867 | 0.00 | 0.00 | 0.00 | 0.00 |
| 09/04/26 1:15:52 PM | 32 | 2.0 | 12.0 | 65 | 34 | 73.6 | 82.7 | 29.907 | 7.41 | 5.2 | 867 | 0.00 | 0.00 | 0.00 | 0.00 |
| 09/04/26 1:16:23 PM | 32 | 1.0 | 12.0 | 65 | 33 | 73.6 | 82.7 | 29.906 | 7.41 | 5.2 | 867 | 0.00 | 0.00 | 0.00 | 0.00 |
University Police wind advisory reference
For campus closure information please call the campus Emergency Hotline at (909) 537-5999
© All rights reserved. Unauthorized duplication or distribution is prohibited
Never base important decisions on this or any weather information obtained from the Internet
California State University, San Bernardino
5500 University Parkway, San Bernardino, CA. 92407
Phone: (909) 537-5108, Email: Weather Webmaster
Last Updated: